Wetterdaten: Donnerstag, 16.02.2017
Datum Zeit Temp. Aussen Temp. o. S. +5cm Feuchte Auss BlattFeu 1 Luftdruck Regen Sonnenschein Regendauer Solar Windben Empfang
16.02.2017 00:00 7,1 C 8,3 C 4,4 C 88 % 0 lf 1030,4 hPa 0,0 l/m 0 min 0 min 5 W/m 6,3 km/h (2 Bft) 95,65 %
16.02.2017 00:02 7,1 C 8,3 C 4,4 C 87 % 0 lf 1030,4 hPa 0,0 l/m 0 min 0 min 5 W/m 6,3 km/h (2 Bft) 89,19 %
16.02.2017 00:05 7,2 C 8,3 C 4,4 C 88 % 0 lf 1030,3 hPa 0,0 l/m 0 min 0 min 5 W/m 6,3 km/h (2 Bft) 93,06 %
16.02.2017 00:06 7,2 C 8,3 C 4,4 C 88 % 0 lf 1030,3 hPa 0,0 l/m 0 min 0 min 5 W/m 6,3 km/h (2 Bft) 95,83 %
16.02.2017 00:08 7,2 C 8,3 C 3,9 C 88 % 0 lf 1030,3 hPa 0,0 l/m 0 min 0 min 5 W/m 6,3 km/h (2 Bft) 93,62 %
16.02.2017 00:10 7,2 C 8,3 C 3,9 C 88 % 0 lf 1030,3 hPa 0,0 l/m 0 min 0 min 5 W/m 6,3 km/h (2 Bft) 93,62 %
16.02.2017 00:12 7,3 C 8,3 C 3,9 C 87 % 0 lf 1030,3 hPa 0,0 l/m 0 min 0 min 5 W/m 6,3 km/h (2 Bft) 91,30 %
16.02.2017 00:14 7,3 C 8,3 C 3,9 C 87 % 0 lf 1030,3 hPa 0,0 l/m 0 min 0 min 5 W/m 6,3 km/h (2 Bft) 93,62 %
16.02.2017 00:16 7,3 C 8,3 C 4,4 C 88 % 0 lf 1030,3 hPa 0,0 l/m 0 min 0 min 5 W/m 6,3 km/h (2 Bft) 91,49 %
16.02.2017 00:18 7,4 C 8,3 C 4,4 C 88 % 0 lf 1030,3 hPa 0,0 l/m 0 min 0 min 5 W/m 6,3 km/h (2 Bft) 93,62 %
16.02.2017 00:20 7,4 C 8,3 C 4,4 C 88 % 0 lf 1030,3 hPa 0,0 l/m 0 min 0 min 5 W/m 6,3 km/h (2 Bft) 93,62 %
16.02.2017 00:22 7,4 C 8,3 C 4,4 C 87 % 0 lf 1030,3 hPa 0,0 l/m 0 min 0 min 5 W/m 6,3 km/h (2 Bft) 93,62 %
16.02.2017 00:24 7,4 C 8,9 C 4,4 C 87 % 0 lf 1030,3 hPa 0,0 l/m 0 min 0 min 5 W/m 6,3 km/h (2 Bft) 95,65 %
16.02.2017 00:26 7,5 C 8,9 C 4,4 C 87 % 0 lf 1030,3 hPa 0,0 l/m 0 min 0 min 5 W/m 6,3 km/h (2 Bft) 89,36 %
16.02.2017 00:28 7,5 C 8,9 C 4,4 C 87 % 0 lf 1030,2 hPa 0,0 l/m 0 min 0 min 5 W/m 6,3 km/h (2 Bft) 91,49 %
16.02.2017 00:30 7,6 C 8,9 C 4,4 C 87 % 0 lf 1030,3 hPa 0,0 l/m 0 min 0 min 5 W/m 6,3 km/h (2 Bft) 95,74 %
16.02.2017 00:32 7,6 C 8,9 C 4,4 C 87 % 0 lf 1030,3 hPa 0,0 l/m 0 min 0 min 5 W/m 6,3 km/h (2 Bft) 95,74 %
16.02.2017 00:34 7,6 C 8,9 C 4,4 C 87 % 0 lf 1030,3 hPa 0,0 l/m 0 min 0 min 5 W/m 6,3 km/h (2 Bft) 91,30 %
16.02.2017 00:36 7,6 C 8,9 C 4,4 C 87 % 0 lf 1030,3 hPa 0,0 l/m 0 min 0 min 5 W/m 6,3 km/h (2 Bft) 95,35 %
16.02.2017 00:38 7,7 C 8,9 C 4,4 C 87 % 0 lf 1030,3 hPa 0,0 l/m 0 min 0 min 5 W/m 4,2 km/h (1 Bft) 91,49 %
16.02.2017 00:40 7,7 C 8,9 C 4,4 C 87 % 0 lf 1030,3 hPa 0,0 l/m 0 min 0 min 5 W/m 6,3 km/h (2 Bft) 91,49 %
16.02.2017 00:42 7,7 C 8,9 C 4,4 C 87 % 0 lf 1030,3 hPa 0,0 l/m 0 min 0 min 5 W/m 2,1 km/h (1 Bft) 95,74 %
16.02.2017 00:44 7,7 C 8,9 C 4,4 C 87 % 0 lf 1030,4 hPa 0,0 l/m 0 min 0 min 5 W/m 4,2 km/h (1 Bft) 93,62 %
16.02.2017 00:46 7,7 C 8,9 C 4,4 C 87 % 0 lf 1030,4 hPa 0,0 l/m 0 min 0 min 5 W/m 6,3 km/h (2 Bft) 95,74 %
16.02.2017 00:48 7,8 C 8,9 C 4,4 C 87 % 0 lf 1030,4 hPa 0,0 l/m 0 min 0 min 5 W/m 6,3 km/h (2 Bft) 95,65 %
16.02.2017 00:50 7,8 C 8,9 C 4,4 C 87 % 0 lf 1030,4 hPa 0,0 l/m 0 min 0 min 5 W/m 4,2 km/h (1 Bft) 97,87 %
16.02.2017 00:52 7,8 C 8,9 C 4,4 C 87 % 0 lf 1030,4 hPa 0,0 l/m 0 min 0 min 5 W/m 4,2 km/h (1 Bft) 93,62 %
16.02.2017 00:54 7,9 C 8,9 C 5,0 C 86 % 0 lf 1030,5 hPa 0,0 l/m 0 min 0 min 5 W/m 6,3 km/h (2 Bft) 95,74 %
16.02.2017 00:56 7,9 C 8,3 C 5,0 C 86 % 0 lf 1030,4 hPa 0,0 l/m 0 min 0 min 5 W/m 6,3 km/h (2 Bft) 93,62 %
16.02.2017 00:58 7,9 C 8,3 C 5,0 C 86 % 0 lf 1030,4 hPa 0,0 l/m 0 min 0 min 5 W/m 6,3 km/h (2 Bft) 95,74 %
16.02.2017 01:00 7,9 C 8,3 C 4,4 C 86 % 0 lf 1030,4 hPa 0,0 l/m 0 min 0 min 5 W/m 4,2 km/h (1 Bft) 97,83 %
16.02.2017 01:02 7,9 C 8,3 C 4,4 C 86 % 0 lf 1030,4 hPa 0,0 l/m 0 min 0 min 5 W/m 4,2 km/h (1 Bft) 97,87 %
16.02.2017 01:04 7,9 C 8,3 C 4,4 C 86 % 0 lf 1030,4 hPa 0,0 l/m 0 min 0 min 5 W/m 0,0 km/h (0 Bft) 93,62 %
16.02.2017 01:06 7,9 C 8,3 C 4,4 C 86 % 0 lf 1030,4 hPa 0,0 l/m 0 min 0 min 5 W/m 6,3 km/h (2 Bft) 96,00 %
16.02.2017 01:08 7,9 C 8,3 C 4,4 C 86 % 0 lf 1030,4 hPa 0,0 l/m 0 min 0 min 5 W/m 4,2 km/h (1 Bft) 95,74 %
16.02.2017 01:10 8,0 C 7,8 C 4,4 C 86 % 0 lf 1030,4 hPa 0,0 l/m 0 min 0 min 5 W/m 4,2 km/h (1 Bft) 93,48 %
16.02.2017 01:12 7,9 C 7,8 C 4,4 C 86 % 0 lf 1030,4 hPa 0,0 l/m 0 min 0 min 5 W/m 4,2 km/h (1 Bft) 95,74 %
16.02.2017 01:14 8,0 C 7,8 C 4,4 C 86 % 0 lf 1030,4 hPa 0,0 l/m 0 min 0 min 5 W/m 6,3 km/h (2 Bft) 97,87 %
16.02.2017 01:16 7,9 C 7,8 C 3,9 C 86 % 0 lf 1030,4 hPa 0,0 l/m 0 min 0 min 5 W/m 4,2 km/h (1 Bft) 95,74 %
16.02.2017 01:18 7,9 C 7,8 C 4,4 C 85 % 0 lf 1030,4 hPa 0,0 l/m 0 min 0 min 5 W/m 8,4 km/h (2 Bft) 95,74 %
16.02.2017 01:20 7,9 C 7,8 C 3,9 C 85 % 0 lf 1030,4 hPa 0,0 l/m 0 min 0 min 5 W/m 6,3 km/h (2 Bft) 93,62 %
16.02.2017 01:22 7,9 C 7,8 C 3,9 C 85 % 0 lf 1030,4 hPa 0,0 l/m 0 min 0 min 5 W/m 4,2 km/h (1 Bft) 93,48 %
16.02.2017 01:24 7,9 C 7,8 C 3,9 C 85 % 0 lf 1030,4 hPa 0,0 l/m 0 min 0 min 5 W/m 6,3 km/h (2 Bft) 97,87 %
16.02.2017 01:26 7,9 C 7,2 C 3,9 C 85 % 0 lf 1030,4 hPa 0,0 l/m 0 min 0 min 5 W/m 6,3 km/h (2 Bft) 95,74 %
16.02.2017 01:28 7,9 C 7,2 C 3,3 C 85 % 0 lf 1030,4 hPa 0,0 l/m 0 min 0 min 5 W/m 6,3 km/h (2 Bft) 95,74 %
16.02.2017 01:30 7,9 C 7,2 C 3,3 C 85 % 0 lf 1030,4 hPa 0,0 l/m 0 min 0 min 5 W/m 6,3 km/h (2 Bft) 95,74 %
16.02.2017 01:32 7,8 C 7,2 C 3,3 C 85 % 0 lf 1030,4 hPa 0,0 l/m 0 min 0 min 5 W/m 6,3 km/h (2 Bft) 93,62 %
16.02.2017 01:34 7,8 C 6,7 C 2,8 C 85 % 0 lf 1030,4 hPa 0,0 l/m 0 min 0 min 5 W/m 6,3 km/h (2 Bft) 97,83 %
16.02.2017 01:36 7,8 C 7,2 C 2,8 C 85 % 0 lf 1030,4 hPa 0,0 l/m 0 min 0 min 5 W/m 6,3 km/h (2 Bft) 95,83 %
16.02.2017 01:38 7,8 C 7,2 C 2,8 C 85 % 0 lf 1030,4 hPa 0,0 l/m 0 min 0 min 5 W/m 8,4 km/h (2 Bft) 97,87 %
16.02.2017 01:40 7,8 C 7,2 C 2,8 C 85 % 0 lf 1030,4 hPa 0,0 l/m 0 min 0 min 5 W/m 6,3 km/h (2 Bft) 97,87 %
16.02.2017 01:42 7,8 C 7,2 C 2,8 C 85 % 0 lf 1030,4 hPa 0,0 l/m 0 min 0 min 5 W/m 6,3 km/h (2 Bft) 100,00 %
16.02.2017 01:44 7,7 C 7,2 C 2,8 C 85 % 0 lf 1030,4 hPa 0,0 l/m 0 min 0 min 5 W/m 6,3 km/h (2 Bft) 97,83 %
16.02.2017 01:46 7,7 C 7,2 C 2,8 C 85 % 0 lf 1030,4 hPa 0,0 l/m 0 min 0 min 5 W/m 6,3 km/h (2 Bft) 100,00 %
16.02.2017 01:48 7,7 C 7,2 C 2,8 C 85 % 0 lf 1030,4 hPa 0,0 l/m 0 min 0 min 5 W/m 8,4 km/h (2 Bft) 97,87 %
16.02.2017 01:50 7,7 C 7,2 C 2,8 C 85 % 0 lf 1030,5 hPa 0,0 l/m 0 min 0 min 5 W/m 8,4 km/h (2 Bft) 97,87 %
16.02.2017 01:52 7,7 C 7,2 C 2,8 C 86 % 0 lf 1030,5 hPa 0,0 l/m 0 min 0 min 5 W/m 10,5 km/h (2 Bft) 97,87 %
16.02.2017 01:54 7,7 C 7,2 C 3,3 C 86 % 0 lf 1030,4 hPa 0,0 l/m 0 min 0 min 5 W/m 12,6 km/h (3 Bft) 100,00 %
16.02.2017 01:56 7,6 C 7,8 C 3,3 C 86 % 0 lf 1030,4 hPa 0,0 l/m 0 min 0 min 5 W/m 8,4 km/h (2 Bft) 100,00 %
16.02.2017 01:58 7,6 C 7,8 C 3,3 C 86 % 0 lf 1030,5 hPa 0,0 l/m 0 min 0 min 5 W/m 10,5 km/h (2 Bft) 100,00 %
16.02.2017 02:00 7,6 C 7,8 C 3,3 C 86 % 0 lf 1030,5 hPa 0,0 l/m 0 min 0 min 5 W/m 8,4 km/h (2 Bft) 95,74 %
16.02.2017 02:02 7,6 C 7,8 C 3,3 C 86 % 0 lf 1030,4 hPa 0,0 l/m 0 min 0 min 5 W/m 6,3 km/h (2 Bft) 93,62 %
16.02.2017 02:04 7,6 C 7,8 C 3,3 C 86 % 0 lf 1030,5 hPa 0,0 l/m 0 min 0 min 5 W/m 6,3 km/h (2 Bft) 100,00 %
16.02.2017 02:06 7,6 C 7,2 C 3,3 C 87 % 0 lf 1030,5 hPa 0,0 l/m 0 min 0 min 5 W/m 8,4 km/h (2 Bft) 95,74 %
16.02.2017 02:08 7,6 C 7,8 C 3,3 C 87 % 0 lf 1030,6 hPa 0,0 l/m 0 min 0 min 5 W/m 8,4 km/h (2 Bft) 97,83 %
16.02.2017 02:10 7,6 C 7,8 C 3,3 C 87 % 0 lf 1030,6 hPa 0,0 l/m 0 min 0 min 5 W/m 8,4 km/h (2 Bft) 100,00 %
16.02.2017 02:12 7,6 C 7,8 C 3,3 C 87 % 0 lf 1030,6 hPa 0,0 l/m 0 min 0 min 5 W/m 6,3 km/h (2 Bft) 95,74 %
16.02.2017 02:14 7,6 C 7,2 C 3,3 C 87 % 0 lf 1030,7 hPa 0,0 l/m 0 min 0 min 5 W/m 6,3 km/h (2 Bft) 93,62 %
16.02.2017 02:16 7,6 C 7,2 C 3,3 C 87 % 0 lf 1030,6 hPa 0,0 l/m 0 min 0 min 5 W/m 6,3 km/h (2 Bft) 93,62 %
16.02.2017 02:18 7,7 C 7,2 C 3,3 C 87 % 0 lf 1030,6 hPa 0,0 l/m 0 min 0 min 5 W/m 6,3 km/h (2 Bft) 93,62 %
16.02.2017 02:20 7,7 C 7,2 C 2,8 C 87 % 0 lf 1030,6 hPa 0,0 l/m 0 min 0 min 5 W/m 6,3 km/h (2 Bft) 95,65 %
16.02.2017 02:22 7,6 C 7,2 C 3,3 C 87 % 0 lf 1030,6 hPa 0,0 l/m 0 min 0 min 5 W/m 4,2 km/h (1 Bft) 95,74 %
16.02.2017 02:24 7,6 C 7,2 C 3,3 C 87 % 0 lf 1030,6 hPa 0,0 l/m 0 min 0 min 5 W/m 2,1 km/h (1 Bft) 95,74 %
16.02.2017 02:26 7,6 C 7,2 C 3,3 C 87 % 0 lf 1030,6 hPa 0,0 l/m 0 min 0 min 5 W/m 2,1 km/h (1 Bft) 95,74 %
16.02.2017 02:28 7,6 C 7,2 C 3,3 C 87 % 0 lf 1030,5 hPa 0,0 l/m 0 min 0 min 5 W/m 2,1 km/h (1 Bft) 93,62 %
16.02.2017 02:30 7,6 C 6,7 C 3,3 C 87 % 0 lf 1030,7 hPa 0,0 l/m 0 min 0 min 5 W/m 4,2 km/h (1 Bft) 95,74 %
16.02.2017 02:32 7,6 C 7,2 C 3,3 C 87 % 0 lf 1030,8 hPa 0,0 l/m 0 min 0 min 5 W/m 6,3 km/h (2 Bft) 95,65 %
16.02.2017 02:34 7,6 C 7,2 C 3,3 C 87 % 0 lf 1030,8 hPa 0,0 l/m 0 min 0 min 5 W/m 4,2 km/h (1 Bft) 93,62 %
16.02.2017 02:36 7,6 C 7,2 C 3,3 C 87 % 0 lf 1030,8 hPa 0,0 l/m 0 min 0 min 5 W/m 4,2 km/h (1 Bft) 95,24 %
16.02.2017 02:38 7,6 C 7,2 C 3,3 C 87 % 0 lf 1030,8 hPa 0,0 l/m 0 min 0 min 5 W/m 6,3 km/h (2 Bft) 93,62 %
16.02.2017 02:40 7,5 C 7,2 C 2,8 C 87 % 0 lf 1030,7 hPa 0,0 l/m 0 min 0 min 5 W/m 6,3 km/h (2 Bft) 93,62 %
16.02.2017 02:42 7,5 C 7,2 C 2,8 C 87 % 0 lf 1030,6 hPa 0,0 l/m 0 min 0 min 5 W/m 4,2 km/h (1 Bft) 95,74 %
16.02.2017 02:44 7,5 C 7,2 C 2,8 C 87 % 0 lf 1030,6 hPa 0,0 l/m 0 min 0 min 5 W/m 2,1 km/h (1 Bft) 97,83 %
16.02.2017 02:46 7,4 C 6,7 C 2,8 C 87 % 0 lf 1030,7 hPa 0,0 l/m 0 min 0 min 5 W/m 4,2 km/h (1 Bft) 95,74 %
16.02.2017 02:48 7,4 C 6,7 C 2,2 C 87 % 0 lf 1030,8 hPa 0,0 l/m 0 min 0 min 5 W/m 6,3 km/h (2 Bft) 97,87 %
16.02.2017 02:50 7,4 C 6,7 C 2,2 C 87 % 0 lf 1030,8 hPa 0,0 l/m 0 min 0 min 5 W/m 4,2 km/h (1 Bft) 97,87 %
16.02.2017 02:52 7,3 C 6,7 C 2,2 C 87 % 0 lf 1030,8 hPa 0,0 l/m 0 min 0 min 5 W/m 4,2 km/h (1 Bft) 95,74 %
16.02.2017 02:54 7,3 C 6,7 C 2,2 C 87 % 0 lf 1030,8 hPa 0,0 l/m 0 min 0 min 5 W/m 4,2 km/h (1 Bft) 97,87 %
16.02.2017 02:56 7,3 C 6,1 C 2,2 C 87 % 1 lf 1030,6 hPa 0,0 l/m 0 min 0 min 5 W/m 4,2 km/h (1 Bft) 97,83 %
16.02.2017 02:58 7,3 C 6,1 C 2,2 C 87 % 1 lf 1030,6 hPa 0,0 l/m 0 min 0 min 5 W/m 4,2 km/h (1 Bft) 95,74 %
16.02.2017 03:00 7,2 C 6,1 C 1,7 C 87 % 1 lf 1030,5 hPa 0,0 l/m 0 min 0 min 5 W/m 6,3 km/h (2 Bft) 97,87 %
16.02.2017 03:02 7,2 C 5,6 C 1,7 C 87 % 1 lf 1030,5 hPa 0,0 l/m 0 min 0 min 3 W/m 2,1 km/h (1 Bft) 97,87 %
16.02.2017 03:04 7,1 C 5,6 C 1,7 C 87 % 1 lf 1030,4 hPa 0,0 l/m 0 min 0 min 0 W/m 2,1 km/h (1 Bft) 97,87 %
16.02.2017 03:06 7,1 C 5,6 C 1,7 C 87 % 1 lf 1030,3 hPa 0,0 l/m 0 min 0 min 4 W/m 4,2 km/h (1 Bft) 96,00 %
16.02.2017 03:08 7,0 C 5,0 C 1,7 C 86 % 1 lf 1030,4 hPa 0,0 l/m 0 min 0 min 5 W/m 4,2 km/h (1 Bft) 95,65 %
16.02.2017 03:10 6,9 C 5,0 C 1,7 C 86 % 1 lf 1030,3 hPa 0,0 l/m 0 min 0 min 5 W/m 0,0 km/h (0 Bft) 97,87 %
16.02.2017 03:12 6,8 C 5,0 C 1,1 C 86 % 1 lf 1030,3 hPa 0,0 l/m 0 min 0 min 5 W/m 0,0 km/h (0 Bft) 100,00 %
16.02.2017 03:14 6,8 C 5,0 C 1,1 C 86 % 1 lf 1030,3 hPa 0,0 l/m 0 min 0 min 5 W/m 0,0 km/h (0 Bft) 97,87 %
16.02.2017 03:16 6,7 C 5,0 C 1,1 C 86 % 1 lf 1030,4 hPa 0,0 l/m 0 min 0 min 5 W/m 0,0 km/h (0 Bft) 95,74 %
16.02.2017 03:18 6,7 C 5,6 C 1,1 C 86 % 1 lf 1030,4 hPa 0,0 l/m 0 min 0 min 5 W/m 4,2 km/h (1 Bft) 100,00 %
16.02.2017 03:20 6,6 C 5,6 C 1,1 C 86 % 1 lf 1030,4 hPa 0,0 l/m 0 min 0 min 5 W/m 4,2 km/h (1 Bft) 97,87 %
16.02.2017 03:22 6,6 C 5,6 C 1,1 C 86 % 1 lf 1030,4 hPa 0,0 l/m 0 min 0 min 5 W/m 6,3 km/h (2 Bft) 97,92 %
16.02.2017 03:24 6,6 C 5,6 C 1,1 C 86 % 1 lf 1030,4 hPa 0,0 l/m 0 min 0 min 5 W/m 4,2 km/h (1 Bft) 93,62 %
16.02.2017 03:26 6,6 C 6,1 C 1,1 C 87 % 2 lf 1030,3 hPa 0,0 l/m 0 min 0 min 5 W/m 4,2 km/h (1 Bft) 93,62 %
16.02.2017 03:28 6,5 C 6,1 C 1,1 C 87 % 2 lf 1030,3 hPa 0,0 l/m 0 min 0 min 5 W/m 6,3 km/h (2 Bft) 95,74 %
16.02.2017 03:30 6,5 C 6,1 C 1,1 C 87 % 2 lf 1030,3 hPa 0,0 l/m 0 min 0 min 5 W/m 4,2 km/h (1 Bft) 97,83 %
16.02.2017 03:32 6,4 C 6,1 C 1,1 C 87 % 2 lf 1030,2 hPa 0,0 l/m 0 min 0 min 5 W/m 6,3 km/h (2 Bft) 93,62 %
16.02.2017 03:34 6,4 C 5,6 C 1,1 C 87 % 2 lf 1030,3 hPa 0,0 l/m 0 min 0 min 5 W/m 6,3 km/h (2 Bft) 97,87 %
16.02.2017 03:36 6,4 C 6,1 C 1,1 C 88 % 2 lf 1030,3 hPa 0,0 l/m 0 min 0 min 5 W/m 8,4 km/h (2 Bft) 97,92 %
16.02.2017 03:38 6,4 C 6,1 C 1,1 C 88 % 2 lf 1030,3 hPa 0,0 l/m 0 min 0 min 5 W/m 8,4 km/h (2 Bft) 95,74 %
16.02.2017 03:40 6,4 C 6,1 C 1,1 C 88 % 2 lf 1030,4 hPa 0,0 l/m 0 min 0 min 5 W/m 8,4 km/h (2 Bft) 95,74 %
16.02.2017 03:42 6,3 C 5,6 C 1,1 C 88 % 2 lf 1030,4 hPa 0,0 l/m 0 min 0 min 5 W/m 6,3 km/h (2 Bft) 91,30 %
16.02.2017 03:44 6,3 C 6,1 C 1,1 C 88 % 2 lf 1030,4 hPa 0,0 l/m 0 min 0 min 5 W/m 6,3 km/h (2 Bft) 95,74 %
16.02.2017 03:46 6,3 C 6,1 C 1,1 C 88 % 2 lf 1030,3 hPa 0,0 l/m 0 min 0 min 5 W/m 4,2 km/h (1 Bft) 93,62 %
16.02.2017 03:48 6,2 C 6,1 C 1,1 C 88 % 2 lf 1030,4 hPa 0,0 l/m 0 min 0 min 5 W/m 8,4 km/h (2 Bft) 97,87 %
16.02.2017 03:50 6,2 C 6,1 C 1,7 C 89 % 2 lf 1030,3 hPa 0,0 l/m 0 min 0 min 5 W/m 8,4 km/h (2 Bft) 93,62 %
16.02.2017 03:52 6,2 C 6,1 C 1,7 C 89 % 2 lf 1030,3 hPa 0,0 l/m 0 min 0 min 5 W/m 6,3 km/h (2 Bft) 93,62 %
16.02.2017 03:54 6,2 C 6,1 C 1,7 C 89 % 2 lf 1030,3 hPa 0,0 l/m 0 min 0 min 5 W/m 4,2 km/h (1 Bft) 95,65 %
16.02.2017 03:56 6,2 C 5,6 C 1,7 C 89 % 2 lf 1030,2 hPa 0,0 l/m 0 min 0 min 5 W/m 4,2 km/h (1 Bft) 95,74 %
16.02.2017 03:58 6,2 C 5,6 C 1,1 C 89 % 1 lf 1030,2 hPa 0,0 l/m 0 min 0 min 5 W/m 6,3 km/h (2 Bft) 87,23 %
16.02.2017 04:00 6,1 C 5,0 C 1,1 C 89 % 1 lf 1030,3 hPa 0,0 l/m 0 min 0 min 5 W/m 4,2 km/h (1 Bft) 93,62 %
16.02.2017 04:05 6,1 C 5,6 C 1,1 C 89 % 1 lf 1030,2 hPa 0,0 l/m 0 min 0 min 5 W/m 6,3 km/h (2 Bft) 93,10 %
16.02.2017 04:06 6,1 C 5,6 C 1,1 C 89 % 1 lf 1030,2 hPa 0,0 l/m 0 min 0 min 5 W/m 4,2 km/h (1 Bft) 91,30 %
16.02.2017 04:08 6,0 C 5,6 C 1,1 C 89 % 1 lf 1030,3 hPa 0,0 l/m 0 min 0 min 5 W/m 4,2 km/h (1 Bft) 97,87 %
16.02.2017 04:10 6,0 C 5,0 C 1,1 C 90 % 2 lf 1030,1 hPa 0,0 l/m 0 min 0 min 5 W/m 2,1 km/h (1 Bft) 95,74 %
16.02.2017 04:12 5,9 C 5,0 C 0,6 C 90 % 2 lf 1030,0 hPa 0,0 l/m 0 min 0 min 5 W/m 4,2 km/h (1 Bft) 93,62 %
16.02.2017 04:14 5,9 C 5,0 C 0,6 C 90 % 2 lf 1030,1 hPa 0,0 l/m 0 min 0 min 5 W/m 6,3 km/h (2 Bft) 91,49 %
16.02.2017 04:16 5,9 C 5,0 C 1,1 C 90 % 2 lf 1030,3 hPa 0,0 l/m 0 min 0 min 5 W/m 8,4 km/h (2 Bft) 95,65 %
16.02.2017 04:18 5,8 C 5,0 C 1,1 C 90 % 2 lf 1030,2 hPa 0,0 l/m 0 min 0 min 5 W/m 10,5 km/h (2 Bft) 95,74 %
16.02.2017 04:20 5,8 C 5,0 C 1,1 C 90 % 2 lf 1030,2 hPa 0,0 l/m 0 min 0 min 5 W/m 8,4 km/h (2 Bft) 93,62 %
16.02.2017 04:22 5,8 C 5,0 C 1,1 C 90 % 2 lf 1030,2 hPa 0,0 l/m 0 min 0 min 5 W/m 6,3 km/h (2 Bft) 89,36 %
16.02.2017 04:24 5,8 C 5,0 C 1,1 C 90 % 2 lf 1030,2 hPa 0,0 l/m 0 min 0 min 5 W/m 6,3 km/h (2 Bft) 93,62 %
16.02.2017 04:26 5,7 C 5,6 C 1,1 C 90 % 2 lf 1030,3 hPa 0,0 l/m 0 min 0 min 5 W/m 6,3 km/h (2 Bft) 93,62 %
16.02.2017 04:28 5,7 C 5,6 C 1,1 C 90 % 2 lf 1030,2 hPa 0,0 l/m 0 min 0 min 5 W/m 8,4 km/h (2 Bft) 95,65 %
16.02.2017 04:30 5,7 C 5,6 C 1,1 C 90 % 2 lf 1030,2 hPa 0,0 l/m 0 min 0 min 5 W/m 6,3 km/h (2 Bft) 95,74 %
16.02.2017 04:32 5,7 C 5,6 C 1,1 C 90 % 2 lf 1030,1 hPa 0,0 l/m 0 min 0 min 5 W/m 4,2 km/h (1 Bft) 95,74 %
16.02.2017 04:34 5,7 C 5,0 C 1,1 C 90 % 2 lf 1030,1 hPa 0,0 l/m 0 min 0 min 5 W/m 6,3 km/h (2 Bft) 93,62 %
16.02.2017 04:36 5,6 C 5,0 C 1,1 C 90 % 2 lf 1030,0 hPa 0,0 l/m 0 min 0 min 5 W/m 4,2 km/h (1 Bft) 93,02 %
16.02.2017 04:38 5,6 C 5,0 C 0,6 C 90 % 2 lf 1030,0 hPa 0,0 l/m 0 min 0 min 5 W/m 2,1 km/h (1 Bft) 93,62 %
16.02.2017 04:40 5,6 C 4,4 C 0,6 C 90 % 2 lf 1030,0 hPa 0,0 l/m 0 min 0 min 5 W/m 2,1 km/h (1 Bft) 97,83 %
16.02.2017 04:42 5,5 C 4,4 C 0,6 C 90 % 2 lf 1030,0 hPa 0,0 l/m 0 min 0 min 5 W/m 2,1 km/h (1 Bft) 97,92 %
16.02.2017 04:44 5,5 C 4,4 C 0,6 C 90 % 3 lf 1030,0 hPa 0,0 l/m 0 min 0 min 2 W/m 4,2 km/h (1 Bft) 97,87 %
16.02.2017 04:46 5,4 C 3,9 C 0,6 C 90 % 3 lf 1029,9 hPa 0,0 l/m 0 min 0 min 4 W/m 4,2 km/h (1 Bft) 95,74 %
16.02.2017 04:48 5,4 C 3,9 C 0,6 C 90 % 3 lf 1030,0 hPa 0,0 l/m 0 min 0 min 5 W/m 4,2 km/h (1 Bft) 97,87 %
16.02.2017 04:50 5,3 C 3,9 C 0,6 C 90 % 3 lf 1030,0 hPa 0,0 l/m 0 min 0 min 5 W/m 4,2 km/h (1 Bft) 97,87 %
16.02.2017 04:52 5,3 C 3,9 C 0,6 C 90 % 3 lf 1030,0 hPa 0,0 l/m 0 min 0 min 5 W/m 4,2 km/h (1 Bft) 91,30 %
16.02.2017 04:54 5,2 C 4,4 C 0,0 C 90 % 3 lf 1030,0 hPa 0,0 l/m 0 min 0 min 5 W/m 4,2 km/h (1 Bft) 95,74 %
16.02.2017 04:56 5,2 C 4,4 C 0,0 C 90 % 3 lf 1030,1 hPa 0,0 l/m 0 min 0 min 5 W/m 6,3 km/h (2 Bft) 97,87 %
16.02.2017 04:58 5,2 C 4,4 C 0,6 C 90 % 4 lf 1030,1 hPa 0,0 l/m 0 min 0 min 5 W/m 6,3 km/h (2 Bft) 100,00 %
16.02.2017 05:00 5,2 C 5,0 C 0,0 C 90 % 4 lf 1030,1 hPa 0,0 l/m 0 min 0 min 5 W/m 6,3 km/h (2 Bft) 97,87 %
16.02.2017 05:02 5,1 C 5,0 C 0,0 C 90 % 4 lf 1030,1 hPa 0,0 l/m 0 min 0 min 5 W/m 6,3 km/h (2 Bft) 93,62 %
16.02.2017 05:04 5,1 C 5,0 C 0,0 C 90 % 4 lf 1030,2 hPa 0,0 l/m 0 min 0 min 5 W/m 4,2 km/h (1 Bft) 97,83 %
16.02.2017 05:06 5,1 C 4,4 C 0,0 C 91 % 5 lf 1030,2 hPa 0,0 l/m 0 min 0 min 5 W/m 6,3 km/h (2 Bft) 97,87 %
16.02.2017 05:08 5,1 C 4,4 C 0,0 C 91 % 6 lf 1030,2 hPa 0,0 l/m 0 min 0 min 5 W/m 6,3 km/h (2 Bft) 95,74 %
16.02.2017 05:10 5,1 C 4,4 C 0,0 C 91 % 6 lf 1030,2 hPa 0,0 l/m 0 min 0 min 5 W/m 6,3 km/h (2 Bft) 95,74 %
16.02.2017 05:12 5,0 C 4,4 C 0,0 C 91 % 7 lf 1030,2 hPa 0,0 l/m 0 min 0 min 5 W/m 8,4 km/h (2 Bft) 100,00 %
16.02.2017 05:14 5,0 C 4,4 C 0,6 C 91 % 8 lf 1030,2 hPa 0,0 l/m 0 min 0 min 5 W/m 8,4 km/h (2 Bft) 97,87 %
16.02.2017 05:16 5,0 C 4,4 C 0,6 C 91 % 8 lf 1030,2 hPa 0,0 l/m 0 min 0 min 5 W/m 6,3 km/h (2 Bft) 95,65 %
16.02.2017 05:18 4,9 C 5,0 C 0,6 C 91 % 9 lf 1030,2 hPa 0,0 l/m 0 min 0 min 5 W/m 8,4 km/h (2 Bft) 97,87 %
16.02.2017 05:20 4,9 C 5,0 C 0,6 C 91 % 9 lf 1030,2 hPa 0,0 l/m 0 min 0 min 5 W/m 8,4 km/h (2 Bft) 89,36 %
16.02.2017 05:22 4,9 C 5,0 C 0,6 C 91 % 10 lf 1030,2 hPa 0,0 l/m 0 min 0 min 5 W/m 10,5 km/h (2 Bft) 96,00 %
16.02.2017 05:24 4,9 C 5,0 C 1,1 C 91 % 11 lf 1030,2 hPa 0,0 l/m 0 min 0 min 5 W/m 14,6 km/h (3 Bft) 97,87 %
16.02.2017 05:26 4,9 C 5,0 C 1,1 C 91 % 11 lf 1030,2 hPa 0,0 l/m 0 min 0 min 5 W/m 8,4 km/h (2 Bft) 95,65 %
16.02.2017 05:28 4,9 C 5,0 C 1,1 C 92 % 11 lf 1030,2 hPa 0,0 l/m 0 min 0 min 5 W/m 10,5 km/h (2 Bft) 95,74 %
16.02.2017 05:30 4,9 C 5,0 C 1,7 C 92 % 12 lf 1030,3 hPa 0,0 l/m 0 min 0 min 5 W/m 8,4 km/h (2 Bft) 97,87 %
16.02.2017 05:32 4,9 C 5,0 C 1,7 C 92 % 12 lf 1030,2 hPa 0,0 l/m 0 min 0 min 5 W/m 4,2 km/h (1 Bft) 95,74 %
16.02.2017 05:34 4,9 C 5,6 C 1,7 C 92 % 12 lf 1030,2 hPa 0,0 l/m 0 min 0 min 5 W/m 8,4 km/h (2 Bft) 97,87 %
16.02.2017 05:36 4,9 C 5,6 C 1,7 C 92 % 12 lf 1030,2 hPa 0,0 l/m 0 min 0 min 5 W/m 6,3 km/h (2 Bft) 97,37 %
16.02.2017 05:38 4,9 C 5,6 C 1,7 C 92 % 11 lf 1030,2 hPa 0,0 l/m 0 min 0 min 5 W/m 8,4 km/h (2 Bft) 95,74 %
16.02.2017 05:40 4,9 C 5,6 C 2,2 C 92 % 11 lf 1030,2 hPa 0,0 l/m 0 min 0 min 5 W/m 6,3 km/h (2 Bft) 97,83 %
16.02.2017 05:42 4,9 C 5,6 C 2,2 C 92 % 11 lf 1030,2 hPa 0,0 l/m 0 min 0 min 5 W/m 8,4 km/h (2 Bft) 97,87 %
16.02.2017 05:44 5,0 C 5,6 C 2,2 C 93 % 11 lf 1030,2 hPa 0,0 l/m 0 min 0 min 5 W/m 6,3 km/h (2 Bft) 95,74 %
16.02.2017 05:46 5,0 C 5,6 C 2,2 C 93 % 11 lf 1030,1 hPa 0,0 l/m 0 min 0 min 5 W/m 8,4 km/h (2 Bft) 97,87 %
16.02.2017 05:48 5,1 C 5,6 C 1,7 C 93 % 11 lf 1030,1 hPa 0,0 l/m 0 min 0 min 5 W/m 6,3 km/h (2 Bft) 91,49 %
16.02.2017 05:50 5,1 C 5,6 C 1,7 C 93 % 11 lf 1030,1 hPa 0,0 l/m 0 min 0 min 5 W/m 6,3 km/h (2 Bft) 97,87 %
16.02.2017 05:52 5,1 C 5,6 C 1,7 C 93 % 11 lf 1030,1 hPa 0,0 l/m 0 min 0 min 5 W/m 6,3 km/h (2 Bft) 95,65 %
16.02.2017 05:54 5,1 C 5,6 C 1,1 C 93 % 11 lf 1030,1 hPa 0,0 l/m 0 min 0 min 5 W/m 8,4 km/h (2 Bft) 95,74 %
16.02.2017 05:56 5,1 C 5,6 C 1,1 C 93 % 11 lf 1030,1 hPa 0,0 l/m 0 min 0 min 5 W/m 8,4 km/h (2 Bft) 91,49 %
16.02.2017 05:58 5,2 C 5,6 C 1,7 C 93 % 11 lf 1030,1 hPa 0,0 l/m 0 min 0 min 5 W/m 10,5 km/h (2 Bft) 97,87 %
16.02.2017 06:00 5,2 C 5,6 C 1,7 C 93 % 11 lf 1030,1 hPa 0,0 l/m 0 min 0 min 5 W/m 6,3 km/h (2 Bft) 95,74 %
16.02.2017 06:02 5,2 C 5,6 C 1,7 C 93 % 10 lf 1030,1 hPa 0,0 l/m 0 min 0 min 5 W/m 6,3 km/h (2 Bft) 93,62 %
16.02.2017 06:04 5,2 C 5,0 C 1,7 C 93 % 10 lf 1030,1 hPa 0,0 l/m 0 min 0 min 5 W/m 6,3 km/h (2 Bft) 90,57 %
16.02.2017 06:06 5,2 C 5,6 C 1,7 C 93 % 10 lf 1030,1 hPa 0,0 l/m 0 min 0 min 5 W/m 6,3 km/h (2 Bft) 94,00 %
16.02.2017 06:08 5,2 C 5,6 C 1,7 C 94 % 10 lf 1030,1 hPa 0,0 l/m 0 min 0 min 5 W/m 6,3 km/h (2 Bft) 91,49 %
16.02.2017 06:10 5,2 C 5,6 C 1,7 C 94 % 10 lf 1030,1 hPa 0,0 l/m 0 min 0 min 5 W/m 4,2 km/h (1 Bft) 95,74 %
16.02.2017 06:12 5,1 C 5,6 C 1,7 C 94 % 10 lf 1030,0 hPa 0,0 l/m 0 min 0 min 5 W/m 4,2 km/h (1 Bft) 95,65 %
16.02.2017 06:14 5,1 C 5,6 C 1,1 C 94 % 10 lf 1030,0 hPa 0,0 l/m 0 min 0 min 5 W/m 6,3 km/h (2 Bft) 95,74 %
16.02.2017 06:16 5,1 C 5,6 C 1,1 C 94 % 10 lf 1030,0 hPa 0,0 l/m 0 min 0 min 5 W/m 4,2 km/h (1 Bft) 91,49 %
16.02.2017 06:18 5,1 C 5,6 C 1,1 C 94 % 10 lf 1030,0 hPa 0,0 l/m 0 min 0 min 5 W/m 4,2 km/h (1 Bft) 95,74 %
16.02.2017 06:20 5,1 C 5,6 C 1,1 C 94 % 10 lf 1030,0 hPa 0,0 l/m 0 min 0 min 5 W/m 6,3 km/h (2 Bft) 95,74 %
16.02.2017 06:22 5,2 C 5,6 C 1,1 C 94 % 10 lf 1030,0 hPa 0,0 l/m 0 min 0 min 5 W/m 6,3 km/h (2 Bft) 95,74 %
16.02.2017 06:24 5,2 C 5,6 C 1,1 C 94 % 10 lf 1030,0 hPa 0,0 l/m 0 min 0 min 5 W/m 6,3 km/h (2 Bft) 93,48 %
16.02.2017 06:26 5,2 C 5,6 C 1,1 C 94 % 10 lf 1030,0 hPa 0,0 l/m 0 min 0 min 5 W/m 6,3 km/h (2 Bft) 95,74 %
16.02.2017 06:28 5,2 C 5,6 C 1,1 C 94 % 11 lf 1030,0 hPa 0,0 l/m 0 min 0 min 5 W/m 6,3 km/h (2 Bft) 91,49 %
16.02.2017 06:30 5,2 C 5,0 C 0,6 C 94 % 11 lf 1030,0 hPa 0,0 l/m 0 min 0 min 5 W/m 8,4 km/h (2 Bft) 95,74 %
16.02.2017 06:32 5,2 C 5,0 C 0,6 C 94 % 11 lf 1030,0 hPa 0,0 l/m 0 min 0 min 5 W/m 6,3 km/h (2 Bft) 91,49 %
16.02.2017 06:34 5,2 C 5,0 C 0,6 C 94 % 12 lf 1030,0 hPa 0,0 l/m 0 min 0 min 5 W/m 6,3 km/h (2 Bft) 95,74 %
16.02.2017 06:36 5,1 C 5,0 C 0,6 C 94 % 12 lf 1030,0 hPa 0,0 l/m 0 min 0 min 5 W/m 6,3 km/h (2 Bft) 93,75 %
16.02.2017 06:38 5,1 C 5,0 C 0,6 C 94 % 12 lf 1029,9 hPa 0,0 l/m 0 min 0 min 5 W/m 6,3 km/h (2 Bft) 97,87 %
16.02.2017 06:40 5,1 C 5,0 C 0,6 C 94 % 12 lf 1030,0 hPa 0,0 l/m 0 min 0 min 5 W/m 6,3 km/h (2 Bft) 95,74 %
16.02.2017 06:42 5,1 C 5,0 C 0,6 C 94 % 13 lf 1029,9 hPa 0,0 l/m 0 min 0 min 5 W/m 6,3 km/h (2 Bft) 97,87 %
16.02.2017 06:44 5,1 C 5,0 C 0,6 C 94 % 13 lf 1029,9 hPa 0,0 l/m 0 min 0 min 5 W/m 6,3 km/h (2 Bft) 93,62 %
16.02.2017 06:46 5,1 C 5,0 C 0,6 C 94 % 13 lf 1029,9 hPa 0,0 l/m 0 min 0 min 5 W/m 6,3 km/h (2 Bft) 95,74 %
16.02.2017 06:48 5,1 C 5,0 C 0,6 C 94 % 13 lf 1030,0 hPa 0,0 l/m 0 min 0 min 5 W/m 8,4 km/h (2 Bft) 97,83 %
16.02.2017 06:50 5,1 C 5,0 C 1,1 C 94 % 14 lf 1029,9 hPa 0,0 l/m 0 min 0 min 5 W/m 8,4 km/h (2 Bft) 100,00 %
16.02.2017 06:52 5,0 C 5,0 C 1,1 C 94 % 14 lf 1029,9 hPa 0,0 l/m 0 min 0 min 5 W/m 6,3 km/h (2 Bft) 97,87 %
16.02.2017 06:54 5,0 C 5,0 C 1,1 C 94 % 14 lf 1029,9 hPa 0,0 l/m 0 min 0 min 5 W/m 6,3 km/h (2 Bft) 100,00 %
16.02.2017 06:56 5,0 C 5,0 C 1,1 C 94 % 14 lf 1030,0 hPa 0,0 l/m 0 min 0 min 5 W/m 6,3 km/h (2 Bft) 100,00 %
16.02.2017 06:58 5,0 C 5,0 C 1,1 C 94 % 15 lf 1030,0 hPa 0,0 l/m 0 min 0 min 5 W/m 6,3 km/h (2 Bft) 93,48 %
16.02.2017 07:00 5,0 C 5,0 C 1,1 C 94 % 14 lf 1029,9 hPa 0,0 l/m 0 min 0 min 5 W/m 6,3 km/h (2 Bft) 100,00 %
16.02.2017 07:02 5,0 C 5,0 C 1,1 C 94 % 15 lf 1030,0 hPa 0,0 l/m 0 min 0 min 5 W/m 8,4 km/h (2 Bft) 100,00 %
16.02.2017 07:04 4,9 C 5,0 C 1,1 C 94 % 15 lf 1030,0 hPa 0,0 l/m 0 min 0 min 5 W/m 6,3 km/h (2 Bft) 97,87 %
16.02.2017 07:06 4,9 C 5,0 C 1,1 C 94 % 15 lf 1030,0 hPa 0,0 l/m 0 min 0 min 5 W/m 6,3 km/h (2 Bft) 100,00 %
16.02.2017 07:08 4,9 C 5,0 C 1,1 C 94 % 15 lf 1030,0 hPa 0,0 l/m 0 min 0 min 5 W/m 6,3 km/h (2 Bft) 97,87 %
16.02.2017 07:10 4,9 C 5,0 C 1,1 C 94 % 15 lf 1030,0 hPa 0,0 l/m 0 min 0 min 5 W/m 6,3 km/h (2 Bft) 100,00 %
16.02.2017 07:12 4,9 C 5,0 C 0,6 C 94 % 15 lf 1029,9 hPa 0,0 l/m 0 min 0 min 5 W/m 6,3 km/h (2 Bft) 95,65 %
16.02.2017 07:14 4,9 C 5,0 C 0,6 C 94 % 15 lf 1029,9 hPa 0,0 l/m 0 min 0 min 5 W/m 6,3 km/h (2 Bft) 100,00 %
16.02.2017 07:16 4,9 C 5,0 C 0,6 C 94 % 15 lf 1029,9 hPa 0,0 l/m 0 min 0 min 5 W/m 6,3 km/h (2 Bft) 100,00 %
16.02.2017 07:18 4,9 C 5,0 C 0,6 C 94 % 15 lf 1029,9 hPa 0,0 l/m 0 min 0 min 5 W/m 6,3 km/h (2 Bft) 97,87 %
16.02.2017 07:20 4,9 C 5,0 C 0,6 C 94 % 15 lf 1029,9 hPa 0,0 l/m 0 min 0 min 5 W/m 6,3 km/h (2 Bft) 95,74 %
16.02.2017 07:22 4,8 C 5,0 C 0,6 C 94 % 15 lf 1029,9 hPa 0,0 l/m 0 min 0 min 5 W/m 4,2 km/h (1 Bft) 100,00 %
16.02.2017 07:24 4,9 C 5,0 C 0,6 C 94 % 15 lf 1029,9 hPa 0,0 l/m 0 min 0 min 5 W/m 8,4 km/h (2 Bft) 95,65 %
16.02.2017 07:26 4,9 C 5,0 C 1,1 C 94 % 15 lf 1029,9 hPa 0,0 l/m 0 min 0 min 5 W/m 6,3 km/h (2 Bft) 97,87 %
16.02.2017 07:28 4,8 C 5,0 C 0,6 C 94 % 15 lf 1029,9 hPa 0,0 l/m 0 min 0 min 5 W/m 6,3 km/h (2 Bft) 97,87 %
16.02.2017 07:30 4,9 C 5,0 C 0,6 C 94 % 15 lf 1029,9 hPa 0,0 l/m 0 min 0 min 5 W/m 4,2 km/h (1 Bft) 100,00 %
16.02.2017 07:32 4,9 C 5,0 C 0,6 C 94 % 15 lf 1029,9 hPa 0,0 l/m 0 min 0 min 5 W/m 4,2 km/h (1 Bft) 97,87 %
16.02.2017 07:34 4,8 C 5,0 C 0,6 C 95 % 15 lf 1029,9 hPa 0,0 l/m 0 min 0 min 6 W/m 6,3 km/h (2 Bft) 100,00 %
16.02.2017 07:36 4,8 C 4,4 C 0,6 C 95 % 15 lf 1029,9 hPa 0,0 l/m 0 min 0 min 7 W/m 4,2 km/h (1 Bft) 95,92 %
16.02.2017 07:38 4,8 C 4,4 C 0,6 C 95 % 15 lf 1029,9 hPa 0,0 l/m 0 min 0 min 9 W/m 4,2 km/h (1 Bft) 100,00 %
16.02.2017 07:40 4,8 C 4,4 C 0,6 C 95 % 15 lf 1029,9 hPa 0,0 l/m 0 min 0 min 11 W/m 4,2 km/h (1 Bft) 97,87 %
16.02.2017 07:42 4,8 C 4,4 C 0,6 C 95 % 15 lf 1029,9 hPa 0,0 l/m 0 min 0 min 11 W/m 6,3 km/h (2 Bft) 97,87 %
16.02.2017 07:44 4,8 C 4,4 C 0,6 C 95 % 15 lf 1029,9 hPa 0,0 l/m 0 min 0 min 12 W/m 6,3 km/h (2 Bft) 100,00 %
16.02.2017 07:46 4,8 C 4,4 C 0,6 C 95 % 15 lf 1029,9 hPa 0,0 l/m 0 min 0 min 12 W/m 6,3 km/h (2 Bft) 100,00 %
16.02.2017 07:48 4,8 C 4,4 C 1,1 C 95 % 15 lf 1029,9 hPa 0,0 l/m 0 min 0 min 12 W/m 6,3 km/h (2 Bft) 97,87 %
16.02.2017 07:50 4,8 C 4,4 C 1,1 C 95 % 15 lf 1029,9 hPa 0,0 l/m 0 min 0 min 14 W/m 8,4 km/h (2 Bft) 97,87 %
16.02.2017 07:52 4,7 C 4,4 C 1,1 C 95 % 15 lf 1029,9 hPa 0,0 l/m 0 min 0 min 14 W/m 4,2 km/h (1 Bft) 97,87 %
16.02.2017 07:54 4,7 C 4,4 C 0,6 C 95 % 15 lf 1029,9 hPa 0,0 l/m 0 min 0 min 15 W/m 4,2 km/h (1 Bft) 89,36 %
16.02.2017 07:56 4,7 C 4,4 C 0,6 C 95 % 15 lf 1029,9 hPa 0,0 l/m 0 min 0 min 16 W/m 2,1 km/h (1 Bft) 93,62 %
16.02.2017 07:58 4,7 C 4,4 C 0,6 C 95 % 15 lf 1029,9 hPa 0,0 l/m 0 min 0 min 18 W/m 2,1 km/h (1 Bft) 95,65 %
16.02.2017 08:00 4,7 C 4,4 C 0,6 C 95 % 15 lf 1029,9 hPa 0,0 l/m 0 min 0 min 19 W/m 4,2 km/h (1 Bft) 97,87 %
16.02.2017 08:02 4,7 C 4,4 C 0,6 C 95 % 15 lf 1029,9 hPa 0,0 l/m 0 min 0 min 18 W/m 4,2 km/h (1 Bft) 95,74 %
16.02.2017 08:04 4,7 C 5,0 C 1,1 C 95 % 15 lf 1029,9 hPa 0,0 l/m 0 min 0 min 17 W/m 6,3 km/h (2 Bft) 95,74 %
16.02.2017 08:06 4,7 C 5,0 C 1,1 C 95 % 15 lf 1029,9 hPa 0,0 l/m 0 min 0 min 19 W/m 6,3 km/h (2 Bft) 95,92 %
16.02.2017 08:08 4,7 C 5,0 C 1,1 C 95 % 15 lf 1029,9 hPa 0,0 l/m 0 min 0 min 19 W/m 6,3 km/h (2 Bft) 91,30 %
16.02.2017 08:10 4,7 C 5,0 C 1,1 C 95 % 15 lf 1029,9 hPa 0,0 l/m 0 min 0 min 24 W/m 4,2 km/h (1 Bft) 91,49 %
16.02.2017 08:12 4,7 C 5,0 C 1,1 C 95 % 15 lf 1029,9 hPa 0,0 l/m 0 min 0 min 22 W/m 6,3 km/h (2 Bft) 93,62 %
16.02.2017 08:14 4,7 C 5,0 C 1,1 C 95 % 15 lf 1029,9 hPa 0,0 l/m 0 min 0 min 27 W/m 6,3 km/h (2 Bft) 93,62 %
16.02.2017 08:16 4,7 C 5,6 C 1,7 C 95 % 15 lf 1029,9 hPa 0,0 l/m 0 min 0 min 31 W/m 6,3 km/h (2 Bft) 95,74 %
16.02.2017 08:18 4,7 C 5,6 C 1,7 C 95 % 15 lf 1030,0 hPa 0,0 l/m 0 min 0 min 28 W/m 6,3 km/h (2 Bft) 91,49 %
16.02.2017 08:20 4,7 C 5,6 C 2,2 C 95 % 15 lf 1029,9 hPa 0,0 l/m 0 min 0 min 30 W/m 8,4 km/h (2 Bft) 91,30 %
16.02.2017 08:22 4,7 C 5,6 C 2,8 C 95 % 15 lf 1029,9 hPa 0,0 l/m 0 min 0 min 33 W/m 8,4 km/h (2 Bft) 91,49 %
16.02.2017 08:24 4,8 C 5,6 C 2,8 C 95 % 15 lf 1029,9 hPa 0,0 l/m 0 min 0 min 35 W/m 10,5 km/h (2 Bft) 91,49 %
16.02.2017 08:26 4,8 C 5,6 C 2,8 C 95 % 15 lf 1029,9 hPa 0,0 l/m 0 min 0 min 40 W/m 6,3 km/h (2 Bft) 91,49 %
16.02.2017 08:28 4,9 C 6,1 C 2,8 C 95 % 15 lf 1029,9 hPa 0,0 l/m 0 min 0 min 44 W/m 6,3 km/h (2 Bft) 89,36 %
16.02.2017 08:30 4,9 C 6,1 C 3,3 C 95 % 15 lf 1029,9 hPa 0,0 l/m 0 min 0 min 46 W/m 6,3 km/h (2 Bft) 95,74 %
16.02.2017 08:32 4,9 C 6,1 C 2,8 C 96 % 15 lf 1029,9 hPa 0,0 l/m 0 min 0 min 48 W/m 6,3 km/h (2 Bft) 93,48 %
16.02.2017 08:34 5,0 C 6,1 C 3,3 C 95 % 15 lf 1029,9 hPa 0,0 l/m 0 min 0 min 50 W/m 8,4 km/h (2 Bft) 87,23 %
16.02.2017 08:36 5,1 C 6,1 C 3,3 C 96 % 15 lf 1029,8 hPa 0,0 l/m 0 min 0 min 53 W/m 6,3 km/h (2 Bft) 91,43 %
16.02.2017 08:38 5,1 C 6,7 C 3,3 C 96 % 15 lf 1029,9 hPa 0,0 l/m 0 min 0 min 54 W/m 8,4 km/h (2 Bft) 93,62 %
16.02.2017 08:40 5,2 C 6,7 C 3,3 C 96 % 15 lf 1029,8 hPa 0,0 l/m 0 min 0 min 57 W/m 6,3 km/h (2 Bft) 93,62 %
16.02.2017 08:42 5,2 C 6,7 C 3,3 C 96 % 15 lf 1029,9 hPa 0,0 l/m 0 min 0 min 59 W/m 8,4 km/h (2 Bft) 91,49 %
16.02.2017 08:44 5,2 C 6,7 C 3,3 C 96 % 15 lf 1029,9 hPa 0,0 l/m 0 min 0 min 64 W/m 8,4 km/h (2 Bft) 91,49 %
16.02.2017 08:46 5,3 C 6,7 C 3,9 C 96 % 15 lf 1029,9 hPa 0,0 l/m 2 min 0 min 70 W/m 8,4 km/h (2 Bft) 91,30 %
16.02.2017 08:48 5,3 C 6,7 C 3,9 C 96 % 15 lf 1029,9 hPa 0,0 l/m 2 min 0 min 80 W/m 4,2 km/h (1 Bft) 93,62 %
16.02.2017 08:50 5,4 C 7,2 C 3,3 C 96 % 15 lf 1030,0 hPa 0,0 l/m 2 min 0 min 86 W/m 2,1 km/h (1 Bft) 91,49 %
16.02.2017 08:52 5,4 C 7,2 C 3,3 C 96 % 15 lf 1029,9 hPa 0,0 l/m 2 min 0 min 78 W/m 4,2 km/h (1 Bft) 91,49 %
16.02.2017 08:54 5,4 C 7,2 C 3,3 C 96 % 15 lf 1029,9 hPa 0,0 l/m 0 min 0 min 75 W/m 6,3 km/h (2 Bft) 91,49 %
16.02.2017 08:56 5,4 C 7,2 C 3,3 C 96 % 15 lf 1029,9 hPa 0,0 l/m 0 min 0 min 75 W/m 4,2 km/h (1 Bft) 93,62 %
16.02.2017 08:58 5,4 C 7,2 C 3,3 C 96 % 15 lf 1029,9 hPa 0,0 l/m 0 min 0 min 73 W/m 2,1 km/h (1 Bft) 91,30 %
16.02.2017 09:00 5,5 C 7,2 C 3,3 C 96 % 15 lf 1029,9 hPa 0,0 l/m 0 min 0 min 77 W/m 2,1 km/h (1 Bft) 93,62 %
16.02.2017 09:02 5,5 C 7,2 C 3,3 C 96 % 15 lf 1029,9 hPa 0,0 l/m 0 min 0 min 84 W/m 2,1 km/h (1 Bft) 93,62 %
16.02.2017 09:04 5,5 C 7,2 C 3,3 C 96 % 15 lf 1029,9 hPa 0,0 l/m 0 min 0 min 74 W/m 2,1 km/h (1 Bft) 93,62 %
16.02.2017 09:06 5,6 C 7,8 C 3,3 C 96 % 15 lf 1029,8 hPa 0,0 l/m 0 min 0 min 70 W/m 2,1 km/h (1 Bft) 95,74 %
16.02.2017 09:08 5,6 C 7,2 C 3,9 C 96 % 15 lf 1029,9 hPa 0,0 l/m 0 min 0 min 71 W/m 2,1 km/h (1 Bft) 93,62 %
16.02.2017 09:10 5,6 C 7,2 C 3,9 C 96 % 15 lf 1029,9 hPa 0,0 l/m 0 min 0 min 71 W/m 2,1 km/h (1 Bft) 95,65 %
16.02.2017 09:12 5,6 C 7,2 C 3,9 C 96 % 14 lf 1029,9 hPa 0,0 l/m 0 min 0 min 72 W/m 4,2 km/h (1 Bft) 95,74 %
16.02.2017 09:14 5,7 C 7,2 C 3,9 C 96 % 13 lf 1029,9 hPa 0,0 l/m 0 min 0 min 74 W/m 4,2 km/h (1 Bft) 97,87 %
16.02.2017 09:16 5,7 C 7,2 C 4,4 C 96 % 11 lf 1029,8 hPa 0,0 l/m 0 min 0 min 73 W/m 4,2 km/h (1 Bft) 95,74 %
16.02.2017 09:18 5,7 C 7,2 C 4,4 C 96 % 9 lf 1029,9 hPa 0,0 l/m 0 min 0 min 71 W/m 6,3 km/h (2 Bft) 97,87 %
16.02.2017 09:20 5,7 C 7,2 C 3,9 C 96 % 7 lf 1029,8 hPa 0,0 l/m 0 min 0 min 72 W/m 4,2 km/h (1 Bft) 97,87 %
16.02.2017 09:22 5,8 C 7,2 C 3,9 C 96 % 5 lf 1029,8 hPa 0,0 l/m 0 min 0 min 79 W/m 4,2 km/h (1 Bft) 97,83 %
16.02.2017 09:24 5,8 C 7,8 C 3,9 C 96 % 4 lf 1029,8 hPa 0,0 l/m 0 min 0 min 88 W/m 4,2 km/h (1 Bft) 97,87 %
16.02.2017 09:26 5,8 C 7,8 C 4,4 C 96 % 3 lf 1029,8 hPa 0,0 l/m 0 min 0 min 97 W/m 0,0 km/h (0 Bft) 100,00 %
16.02.2017 09:28 5,8 C 7,8 C 4,4 C 96 % 3 lf 1029,8 hPa 0,0 l/m 0 min 0 min 100 W/m 0,0 km/h (0 Bft) 100,00 %
16.02.2017 09:30 5,9 C 8,3 C 4,4 C 96 % 2 lf 1029,8 hPa 0,0 l/m 0 min 0 min 102 W/m 0,0 km/h (0 Bft) 97,87 %
16.02.2017 09:32 5,9 C 8,3 C 4,4 C 96 % 2 lf 1029,8 hPa 0,0 l/m 0 min 0 min 104 W/m 0,0 km/h (0 Bft) 97,87 %
16.02.2017 09:34 5,9 C 8,3 C 4,4 C 96 % 1 lf 1029,8 hPa 0,0 l/m 0 min 0 min 107 W/m 0,0 km/h (0 Bft) 95,65 %
16.02.2017 09:36 6,0 C 8,3 C 4,4 C 96 % 1 lf 1029,7 hPa 0,0 l/m 0 min 0 min 100 W/m 0,0 km/h (0 Bft) 98,15 %
16.02.2017 09:38 6,0 C 8,3 C 4,4 C 96 % 1 lf 1029,7 hPa 0,0 l/m 0 min 0 min 101 W/m 0,0 km/h (0 Bft) 95,74 %
16.02.2017 09:40 6,1 C 8,3 C 4,4 C 96 % 1 lf 1029,7 hPa 0,0 l/m 0 min 0 min 106 W/m 2,1 km/h (1 Bft) 100,00 %
16.02.2017 09:42 6,1 C 8,9 C 4,4 C 96 % 1 lf 1029,7 hPa 0,0 l/m 0 min 0 min 108 W/m 4,2 km/h (1 Bft) 97,87 %
16.02.2017 09:44 6,1 C 8,9 C 4,4 C 97 % 1 lf 1029,7 hPa 0,0 l/m 0 min 0 min 119 W/m 4,2 km/h (1 Bft) 97,83 %
16.02.2017 09:46 6,2 C 9,4 C 4,4 C 97 % 1 lf 1029,7 hPa 0,0 l/m 2 min 0 min 132 W/m 4,2 km/h (1 Bft) 100,00 %
16.02.2017 09:48 6,2 C 10,0 C 4,4 C 97 % 1 lf 1029,7 hPa 0,0 l/m 2 min 0 min 143 W/m 4,2 km/h (1 Bft) 100,00 %
16.02.2017 09:50 6,2 C 10,6 C 5,0 C 97 % 1 lf 1029,7 hPa 0,0 l/m 2 min 0 min 155 W/m 4,2 km/h (1 Bft) 95,74 %
16.02.2017 09:52 6,2 C 11,1 C 5,0 C 97 % 0 lf 1029,7 hPa 0,0 l/m 2 min 0 min 188 W/m 4,2 km/h (1 Bft) 95,83 %
16.02.2017 09:54 6,3 C 11,7 C 5,6 C 97 % 0 lf 1029,7 hPa 0,0 l/m 2 min 0 min 210 W/m 4,2 km/h (1 Bft) 93,62 %
16.02.2017 09:56 6,4 C 11,1 C 5,6 C 97 % 0 lf 1029,7 hPa 0,0 l/m 2 min 0 min 181 W/m 4,2 km/h (1 Bft) 100,00 %
16.02.2017 09:58 6,4 C 11,7 C 5,6 C 97 % 0 lf 1029,7 hPa 0,0 l/m 2 min 0 min 171 W/m 4,2 km/h (1 Bft) 100,00 %
16.02.2017 10:00 6,5 C 11,7 C 5,6 C 97 % 0 lf 1029,7 hPa 0,0 l/m 2 min 0 min 173 W/m 2,1 km/h (1 Bft) 95,74 %
16.02.2017 10:02 6,6 C 12,2 C 5,6 C 97 % 0 lf 1029,7 hPa 0,0 l/m 2 min 0 min 182 W/m 2,1 km/h (1 Bft) 95,74 %
16.02.2017 10:04 6,6 C 12,8 C 6,1 C 97 % 0 lf 1029,7 hPa 0,0 l/m 2 min 0 min 215 W/m 0,0 km/h (0 Bft) 97,87 %
16.02.2017 10:06 6,7 C 13,3 C 6,1 C 97 % 0 lf 1029,7 hPa 0,0 l/m 2 min 0 min 189 W/m 0,0 km/h (0 Bft) 97,96 %
16.02.2017 10:08 6,7 C 12,8 C 6,1 C 97 % 0 lf 1029,6 hPa 0,0 l/m 2 min 0 min 167 W/m 2,1 km/h (1 Bft) 97,87 %
16.02.2017 10:10 6,8 C 12,8 C 6,1 C 97 % 0 lf 1029,7 hPa 0,0 l/m 2 min 0 min 174 W/m 4,2 km/h (1 Bft) 95,74 %
16.02.2017 10:12 6,9 C 12,8 C 6,7 C 97 % 0 lf 1029,7 hPa 0,0 l/m 2 min 0 min 180 W/m 4,2 km/h (1 Bft) 97,87 %
16.02.2017 10:14 7,0 C 12,8 C 6,7 C 97 % 0 lf 1029,7 hPa 0,0 l/m 2 min 0 min 176 W/m 6,3 km/h (2 Bft) 95,74 %
16.02.2017 10:16 7,1 C 12,8 C 6,7 C 97 % 0 lf 1029,7 hPa 0,0 l/m 2 min 0 min 184 W/m 6,3 km/h (2 Bft) 95,74 %
16.02.2017 10:18 7,2 C 12,2 C 7,2 C 97 % 0 lf 1029,7 hPa 0,0 l/m 2 min 0 min 208 W/m 8,4 km/h (2 Bft) 95,65 %
16.02.2017 10:20 7,3 C 12,8 C 7,8 C 97 % 0 lf 1029,7 hPa 0,0 l/m 2 min 0 min 266 W/m 6,3 km/h (2 Bft) 97,62 %
16.02.2017 10:22 7,4 C 15,0 C 7,8 C 97 % 0 lf 1029,7 hPa 0,0 l/m 2 min 0 min 377 W/m 6,3 km/h (2 Bft) 97,96 %
16.02.2017 10:24 7,6 C 16,1 C 8,9 C 97 % 0 lf 1029,7 hPa 0,0 l/m 2 min 0 min 397 W/m 8,4 km/h (2 Bft) 97,87 %
16.02.2017 10:26 7,7 C 18,3 C 9,4 C 97 % 0 lf 1029,7 hPa 0,0 l/m 2 min 0 min 436 W/m 6,3 km/h (2 Bft) 95,74 %
16.02.2017 10:28 7,8 C 18,3 C 9,4 C 97 % 0 lf 1029,7 hPa 0,0 l/m 2 min 0 min 446 W/m 10,5 km/h (2 Bft) 95,74 %
16.02.2017 10:30 8,1 C 20,6 C 10,0 C 97 % 0 lf 1029,6 hPa 0,0 l/m 2 min 0 min 447 W/m 8,4 km/h (2 Bft) 97,83 %
16.02.2017 10:32 8,2 C 21,1 C 10,6 C 98 % 0 lf 1029,6 hPa 0,0 l/m 2 min 0 min 439 W/m 16,7 km/h (3 Bft) 95,74 %
16.02.2017 10:34 8,4 C 21,1 C 10,6 C 97 % 0 lf 1029,7 hPa 0,0 l/m 2 min 0 min 436 W/m 12,6 km/h (3 Bft) 95,74 %
16.02.2017 10:36 8,6 C 20,6 C 10,6 C 98 % 0 lf 1029,7 hPa 0,0 l/m 2 min 0 min 440 W/m 16,7 km/h (3 Bft) 98,00 %
16.02.2017 10:38 8,8 C 18,9 C 10,6 C 98 % 0 lf 1029,6 hPa 0,0 l/m 2 min 0 min 437 W/m 14,6 km/h (3 Bft) 97,87 %
16.02.2017 10:40 9,0 C 18,9 C 10,6 C 98 % 0 lf 1029,6 hPa 0,0 l/m 2 min 0 min 429 W/m 12,6 km/h (3 Bft) 97,87 %
16.02.2017 10:42 9,1 C 18,3 C 11,1 C 98 % 0 lf 1029,5 hPa 0,0 l/m 2 min 0 min 383 W/m 12,6 km/h (3 Bft) 93,48 %
16.02.2017 10:44 9,3 C 18,9 C 11,1 C 98 % 0 lf 1029,5 hPa 0,0 l/m 2 min 0 min 394 W/m 16,7 km/h (3 Bft) 95,74 %
16.02.2017 10:46 9,4 C 17,8 C 11,1 C 97 % 0 lf 1029,5 hPa 0,0 l/m 2 min 0 min 379 W/m 18,8 km/h (3 Bft) 95,74 %
16.02.2017 10:48 9,6 C 17,2 C 11,1 C 97 % 0 lf 1029,5 hPa 0,0 l/m 2 min 0 min 324 W/m 16,7 km/h (3 Bft) 91,49 %
16.02.2017 10:50 9,7 C 17,2 C 11,1 C 97 % 0 lf 1029,5 hPa 0,0 l/m 2 min 0 min 313 W/m 14,6 km/h (3 Bft) 97,87 %
16.02.2017 10:52 9,8 C 16,7 C 11,1 C 97 % 0 lf 1029,4 hPa 0,0 l/m 2 min 0 min 333 W/m 14,6 km/h (3 Bft) 100,00 %
16.02.2017 10:54 9,9 C 16,7 C 11,1 C 97 % 0 lf 1029,4 hPa 0,0 l/m 2 min 0 min 341 W/m 14,6 km/h (3 Bft) 100,00 %
16.02.2017 10:56 10,0 C 16,7 C 11,1 C 97 % 0 lf 1029,4 hPa 0,0 l/m 2 min 0 min 333 W/m 12,6 km/h (3 Bft) 97,87 %
16.02.2017 10:58 10,1 C 17,2 C 11,1 C 96 % 0 lf 1029,4 hPa 0,0 l/m 2 min 0 min 354 W/m 10,5 km/h (2 Bft) 100,00 %
16.02.2017 11:00 10,2 C 17,2 C 11,1 C 96 % 0 lf 1029,5 hPa 0,0 l/m 2 min 0 min 349 W/m 16,7 km/h (3 Bft) 97,87 %
16.02.2017 11:02 10,3 C 17,2 C 11,1 C 95 % 0 lf 1029,5 hPa 0,0 l/m 2 min 0 min 341 W/m 16,7 km/h (3 Bft) 97,14 %
16.02.2017 11:04 10,4 C 16,7 C 11,1 C 95 % 0 lf 1029,5 hPa 0,0 l/m 2 min 0 min 331 W/m 16,7 km/h (3 Bft) 96,23 %
16.02.2017 11:06 10,5 C 16,1 C 11,1 C 94 % 0 lf 1029,5 hPa 0,0 l/m 2 min 0 min 305 W/m 18,8 km/h (3 Bft) 100,00 %
16.02.2017 11:08 10,6 C 16,1 C 11,1 C 94 % 0 lf 1029,4 hPa 0,0 l/m 2 min 0 min 325 W/m 12,6 km/h (3 Bft) 97,87 %
16.02.2017 11:10 10,7 C 17,2 C 11,1 C 93 % 0 lf 1029,4 hPa 0,0 l/m 2 min 0 min 338 W/m 12,6 km/h (3 Bft) 93,62 %
16.02.2017 11:12 10,7 C 17,2 C 11,7 C 93 % 0 lf 1029,4 hPa 0,0 l/m 2 min 0 min 303 W/m 14,6 km/h (3 Bft) 91,84 %
16.02.2017 11:14 10,8 C 16,7 C 11,1 C 92 % 0 lf 1029,4 hPa 0,0 l/m 2 min 0 min 313 W/m 14,6 km/h (3 Bft) 91,49 %
16.02.2017 11:16 10,9 C 16,1 C 11,1 C 92 % 0 lf 1029,4 hPa 0,0 l/m 2 min 0 min 322 W/m 12,6 km/h (3 Bft) 91,30 %
16.02.2017 11:18 10,9 C 16,7 C 11,1 C 91 % 0 lf 1029,4 hPa 0,0 l/m 2 min 0 min 321 W/m 16,7 km/h (3 Bft) 93,62 %
16.02.2017 11:20 11,0 C 17,2 C 11,7 C 90 % 0 lf 1029,4 hPa 0,0 l/m 2 min 0 min 331 W/m 16,7 km/h (3 Bft) 95,74 %
16.02.2017 11:22 11,1 C 16,1 C 11,1 C 90 % 0 lf 1029,4 hPa 0,0 l/m 2 min 0 min 313 W/m 20,9 km/h (4 Bft) 93,62 %
16.02.2017 11:24 11,1 C 16,1 C 11,1 C 89 % 0 lf 1029,4 hPa 0,0 l/m 2 min 0 min 286 W/m 16,7 km/h (3 Bft) 93,62 %
16.02.2017 11:26 11,2 C 15,0 C 11,1 C 89 % 0 lf 1029,4 hPa 0,0 l/m 2 min 0 min 288 W/m 18,8 km/h (3 Bft) 93,62 %
16.02.2017 11:28 11,2 C 15,6 C 11,7 C 88 % 0 lf 1029,4 hPa 0,0 l/m 2 min 0 min 255 W/m 18,8 km/h (3 Bft) 91,30 %
16.02.2017 11:30 11,3 C 16,1 C 11,7 C 88 % 0 lf 1029,4 hPa 0,0 l/m 2 min 0 min 271 W/m 14,6 km/h (3 Bft) 91,49 %
16.02.2017 11:32 11,3 C 16,7 C 11,7 C 87 % 0 lf 1029,4 hPa 0,0 l/m 2 min 0 min 349 W/m 23,0 km/h (4 Bft) 89,36 %
16.02.2017 11:34 11,4 C 17,2 C 12,2 C 87 % 0 lf 1029,4 hPa 0,0 l/m 2 min 0 min 391 W/m 16,7 km/h (3 Bft) 91,49 %
16.02.2017 11:36 11,4 C 17,8 C 12,2 C 87 % 0 lf 1029,4 hPa 0,0 l/m 2 min 0 min 406 W/m 18,8 km/h (3 Bft) 93,75 %
16.02.2017 11:38 11,5 C 18,3 C 12,2 C 86 % 0 lf 1029,4 hPa 0,0 l/m 2 min 0 min 398 W/m 18,8 km/h (3 Bft) 93,62 %
16.02.2017 11:40 11,6 C 18,9 C 12,2 C 86 % 0 lf 1029,4 hPa 0,0 l/m 2 min 0 min 416 W/m 12,6 km/h (3 Bft) 93,48 %
16.02.2017 11:42 11,6 C 18,3 C 12,2 C 86 % 0 lf 1029,4 hPa 0,0 l/m 2 min 0 min 405 W/m 14,6 km/h (3 Bft) 93,62 %
16.02.2017 11:44 11,7 C 18,3 C 12,8 C 85 % 0 lf 1029,4 hPa 0,0 l/m 2 min 0 min 407 W/m 12,6 km/h (3 Bft) 91,49 %
16.02.2017 11:46 11,8 C 18,9 C 13,3 C 85 % 0 lf 1029,3 hPa 0,0 l/m 2 min 0 min 405 W/m 12,6 km/h (3 Bft) 91,49 %
16.02.2017 11:48 11,9 C 18,3 C 13,3 C 85 % 0 lf 1029,3 hPa 0,0 l/m 2 min 0 min 396 W/m 12,6 km/h (3 Bft) 87,23 %
16.02.2017 11:50 11,9 C 18,9 C 13,3 C 85 % 0 lf 1029,4 hPa 0,0 l/m 2 min 0 min 382 W/m 14,6 km/h (3 Bft) 90,91 %
16.02.2017 11:52 12,0 C 18,3 C 13,3 C 84 % 0 lf 1029,3 hPa 0,0 l/m 2 min 0 min 366 W/m 12,6 km/h (3 Bft) 91,30 %
16.02.2017 11:54 12,1 C 17,2 C 12,8 C 83 % 0 lf 1029,3 hPa 0,0 l/m 2 min 0 min 348 W/m 16,7 km/h (3 Bft) 93,62 %
16.02.2017 11:56 12,1 C 16,7 C 12,8 C 83 % 0 lf 1029,3 hPa 0,0 l/m 2 min 0 min 257 W/m 20,9 km/h (4 Bft) 93,62 %
16.02.2017 11:58 12,1 C 16,7 C 12,8 C 82 % 0 lf 1029,3 hPa 0,0 l/m 2 min 0 min 322 W/m 18,8 km/h (3 Bft) 95,74 %
16.02.2017 12:00 12,1 C 16,1 C 12,8 C 82 % 0 lf 1029,3 hPa 0,0 l/m 2 min 0 min 322 W/m 16,7 km/h (3 Bft) 97,87 %
16.02.2017 12:02 12,1 C 17,2 C 12,8 C 81 % 0 lf 1029,3 hPa 0,0 l/m 2 min 0 min 392 W/m 16,7 km/h (3 Bft) 97,30 %
16.02.2017 12:04 12,1 C 17,2 C 12,8 C 80 % 0 lf 1029,2 hPa 0,0 l/m 2 min 0 min 422 W/m 18,8 km/h (3 Bft) 98,11 %
16.02.2017 12:06 12,1 C 17,8 C 12,8 C 80 % 0 lf 1029,3 hPa 0,0 l/m 2 min 0 min 438 W/m 20,9 km/h (4 Bft) 93,62 %
16.02.2017 12:08 12,2 C 18,3 C 12,8 C 80 % 0 lf 1029,2 hPa 0,0 l/m 2 min 0 min 448 W/m 16,7 km/h (3 Bft) 91,49 %
16.02.2017 12:10 12,2 C 17,8 C 12,8 C 79 % 0 lf 1029,1 hPa 0,0 l/m 2 min 0 min 422 W/m 18,8 km/h (3 Bft) 97,87 %
16.02.2017 12:12 12,2 C 18,3 C 12,8 C 79 % 0 lf 1029,2 hPa 0,0 l/m 2 min 0 min 305 W/m 23,0 km/h (4 Bft) 97,96 %
16.02.2017 12:14 12,2 C 18,9 C 12,8 C 78 % 0 lf 1029,1 hPa 0,0 l/m 2 min 0 min 475 W/m 23,0 km/h (4 Bft) 95,74 %
16.02.2017 12:16 12,3 C 19,4 C 12,8 C 78 % 0 lf 1029,0 hPa 0,0 l/m 2 min 0 min 510 W/m 20,9 km/h (4 Bft) 100,00 %
16.02.2017 12:18 12,3 C 20,0 C 12,8 C 77 % 0 lf 1029,0 hPa 0,0 l/m 2 min 0 min 514 W/m 18,8 km/h (3 Bft) 100,00 %
16.02.2017 12:20 12,4 C 20,6 C 12,8 C 76 % 0 lf 1029,0 hPa 0,0 l/m 2 min 0 min 517 W/m 16,7 km/h (3 Bft) 100,00 %
16.02.2017 12:22 12,4 C 21,7 C 13,3 C 76 % 0 lf 1028,9 hPa 0,0 l/m 2 min 0 min 499 W/m 18,8 km/h (3 Bft) 97,92 %
16.02.2017 12:24 12,6 C 22,2 C 13,3 C 76 % 0 lf 1028,9 hPa 0,0 l/m 2 min 0 min 524 W/m 16,7 km/h (3 Bft) 100,00 %
16.02.2017 12:26 12,7 C 21,7 C 13,3 C 76 % 0 lf 1029,0 hPa 0,0 l/m 2 min 0 min 518 W/m 20,9 km/h (4 Bft) 100,00 %
16.02.2017 12:28 12,8 C 22,2 C 13,3 C 75 % 0 lf 1028,9 hPa 0,0 l/m 2 min 0 min 529 W/m 14,6 km/h (3 Bft) 100,00 %
16.02.2017 12:30 12,8 C 20,6 C 13,3 C 75 % 0 lf 1028,9 hPa 0,0 l/m 2 min 0 min 482 W/m 14,6 km/h (3 Bft) 100,00 %
16.02.2017 12:32 12,9 C 20,0 C 13,3 C 75 % 0 lf 1028,9 hPa 0,0 l/m 2 min 0 min 382 W/m 18,8 km/h (3 Bft) 100,00 %
16.02.2017 12:34 12,9 C 18,9 C 12,8 C 73 % 0 lf 1028,9 hPa 0,0 l/m 2 min 0 min 316 W/m 20,9 km/h (4 Bft) 97,87 %
16.02.2017 12:36 12,9 C 17,8 C 12,8 C 73 % 0 lf 1028,8 hPa 0,0 l/m 2 min 0 min 365 W/m 18,8 km/h (3 Bft) 100,00 %
16.02.2017 12:38 12,9 C 16,7 C 12,8 C 73 % 0 lf 1028,8 hPa 0,0 l/m 2 min 0 min 338 W/m 20,9 km/h (4 Bft) 95,65 %
16.02.2017 12:40 12,9 C 16,7 C 12,8 C 73 % 0 lf 1028,7 hPa 0,0 l/m 2 min 0 min 275 W/m 14,6 km/h (3 Bft) 93,62 %
16.02.2017 12:42 12,9 C 16,1 C 12,8 C 73 % 0 lf 1028,8 hPa 0,0 l/m 2 min 0 min 268 W/m 18,8 km/h (3 Bft) 100,00 %
16.02.2017 12:44 12,9 C 16,1 C 12,2 C 73 % 0 lf 1028,8 hPa 0,0 l/m 2 min 0 min 269 W/m 14,6 km/h (3 Bft) 95,74 %
16.02.2017 12:46 12,9 C 15,6 C 12,2 C 72 % 0 lf 1028,7 hPa 0,0 l/m 2 min 0 min 252 W/m 18,8 km/h (3 Bft) 97,87 %
16.02.2017 12:48 12,8 C 15,6 C 12,2 C 72 % 0 lf 1028,7 hPa 0,0 l/m 2 min 0 min 248 W/m 16,7 km/h (3 Bft) 100,00 %
16.02.2017 12:50 12,7 C 16,1 C 12,2 C 72 % 0 lf 1028,7 hPa 0,0 l/m 2 min 0 min 277 W/m 12,6 km/h (3 Bft) 95,65 %
16.02.2017 12:52 12,7 C 16,7 C 12,2 C 73 % 0 lf 1028,7 hPa 0,0 l/m 2 min 0 min 291 W/m 14,6 km/h (3 Bft) 95,74 %
16.02.2017 12:54 12,7 C 17,2 C 12,2 C 73 % 0 lf 1028,6 hPa 0,0 l/m 2 min 0 min 304 W/m 16,7 km/h (3 Bft) 95,74 %
16.02.2017 12:56 12,7 C 17,2 C 12,2 C 73 % 0 lf 1028,6 hPa 0,0 l/m 2 min 0 min 331 W/m 14,6 km/h (3 Bft) 95,74 %
16.02.2017 12:58 12,7 C 17,2 C 12,2 C 73 % 0 lf 1028,6 hPa 0,0 l/m 2 min 0 min 286 W/m 16,7 km/h (3 Bft) 97,87 %
16.02.2017 13:00 12,7 C 17,2 C 12,2 C 73 % 0 lf 1028,5 hPa 0,0 l/m 2 min 0 min 268 W/m 10,5 km/h (2 Bft) 93,62 %
16.02.2017 13:02 12,7 C 18,3 C 12,2 C 73 % 0 lf 1028,5 hPa 0,0 l/m 2 min 0 min 334 W/m 12,6 km/h (3 Bft) 95,65 %
16.02.2017 13:04 12,7 C 19,4 C 12,8 C 74 % 0 lf 1028,3 hPa 0,0 l/m 2 min 0 min 472 W/m 16,7 km/h (3 Bft) 95,74 %
16.02.2017 13:06 12,7 C 20,0 C 12,8 C 73 % 0 lf 1028,3 hPa 0,0 l/m 2 min 0 min 454 W/m 12,6 km/h (3 Bft) 97,62 %
16.02.2017 13:08 12,8 C 19,4 C 12,8 C 73 % 0 lf 1028,3 hPa 0,0 l/m 2 min 0 min 391 W/m 14,6 km/h (3 Bft) 97,87 %
16.02.2017 13:10 12,8 C 18,9 C 12,8 C 72 % 0 lf 1028,3 hPa 0,0 l/m 2 min 0 min 366 W/m 18,8 km/h (3 Bft) 97,87 %
16.02.2017 13:12 12,8 C 17,8 C 12,8 C 72 % 0 lf 1028,3 hPa 0,0 l/m 2 min 0 min 295 W/m 16,7 km/h (3 Bft) 97,87 %
16.02.2017 13:14 12,8 C 17,2 C 12,2 C 72 % 0 lf 1028,3 hPa 0,0 l/m 2 min 0 min 259 W/m 12,6 km/h (3 Bft) 95,74 %
16.02.2017 13:16 12,8 C 17,2 C 12,2 C 70 % 0 lf 1028,3 hPa 0,0 l/m 2 min 0 min 264 W/m 16,7 km/h (3 Bft) 93,48 %
16.02.2017 13:18 12,8 C 16,7 C 12,2 C 70 % 0 lf 1028,3 hPa 0,0 l/m 2 min 0 min 237 W/m 16,7 km/h (3 Bft) 91,49 %
16.02.2017 13:20 12,8 C 16,1 C 12,2 C 69 % 0 lf 1028,3 hPa 0,0 l/m 0 min 0 min 216 W/m 16,7 km/h (3 Bft) 95,74 %
16.02.2017 13:22 12,8 C 15,6 C 12,2 C 69 % 0 lf 1028,2 hPa 0,0 l/m 0 min 0 min 216 W/m 14,6 km/h (3 Bft) 100,00 %
16.02.2017 13:24 12,7 C 15,6 C 12,2 C 68 % 0 lf 1028,2 hPa 0,0 l/m 2 min 0 min 224 W/m 10,5 km/h (2 Bft) 95,74 %
16.02.2017 13:26 12,7 C 15,0 C 12,2 C 68 % 0 lf 1028,2 hPa 0,0 l/m 2 min 0 min 226 W/m 20,9 km/h (4 Bft) 93,48 %
16.02.2017 13:28 12,7 C 14,4 C 12,2 C 67 % 0 lf 1028,2 hPa 0,0 l/m 2 min 0 min 230 W/m 18,8 km/h (3 Bft) 97,87 %
16.02.2017 13:30 12,6 C 14,4 C 12,2 C 67 % 0 lf 1028,2 hPa 0,0 l/m 2 min 0 min 233 W/m 16,7 km/h (3 Bft) 95,74 %
16.02.2017 13:32 12,6 C 15,0 C 12,2 C 66 % 0 lf 1028,2 hPa 0,0 l/m 2 min 0 min 239 W/m 16,7 km/h (3 Bft) 93,62 %
16.02.2017 13:34 12,5 C 15,0 C 12,2 C 67 % 0 lf 1028,1 hPa 0,0 l/m 2 min 0 min 239 W/m 16,7 km/h (3 Bft) 97,87 %
16.02.2017 13:36 12,4 C 14,4 C 12,2 C 67 % 0 lf 1028,1 hPa 0,0 l/m 2 min 0 min 258 W/m 23,0 km/h (4 Bft) 95,92 %
16.02.2017 13:38 12,4 C 16,7 C 12,2 C 68 % 0 lf 1028,0 hPa 0,0 l/m 2 min 0 min 365 W/m 14,6 km/h (3 Bft) 100,00 %
16.02.2017 13:40 12,4 C 18,9 C 12,8 C 68 % 0 lf 1028,0 hPa 0,0 l/m 2 min 0 min 562 W/m 16,7 km/h (3 Bft) 95,74 %
16.02.2017 13:42 12,5 C 20,0 C 12,8 C 68 % 0 lf 1028,0 hPa 0,0 l/m 2 min 0 min 568 W/m 18,8 km/h (3 Bft) 95,74 %
16.02.2017 13:44 12,6 C 18,9 C 12,8 C 68 % 0 lf 1028,0 hPa 0,0 l/m 2 min 0 min 418 W/m 16,7 km/h (3 Bft) 97,87 %
16.02.2017 13:46 12,6 C 17,8 C 12,8 C 68 % 0 lf 1028,0 hPa 0,0 l/m 2 min 0 min 281 W/m 16,7 km/h (3 Bft) 97,87 %
16.02.2017 13:48 12,6 C 16,1 C 12,2 C 68 % 0 lf 1028,0 hPa 0,0 l/m 2 min 0 min 224 W/m 16,7 km/h (3 Bft) 97,87 %
16.02.2017 13:50 12,6 C 16,1 C 12,2 C 68 % 0 lf 1028,0 hPa 0,0 l/m 0 min 0 min 204 W/m 16,7 km/h (3 Bft) 97,83 %
16.02.2017 13:52 12,6 C 15,6 C 11,7 C 68 % 0 lf 1028,1 hPa 0,0 l/m 2 min 0 min 216 W/m 14,6 km/h (3 Bft) 93,75 %
16.02.2017 13:54 12,6 C 15,0 C 11,7 C 68 % 0 lf 1028,0 hPa 0,0 l/m 2 min 0 min 238 W/m 12,6 km/h (3 Bft) 93,62 %
16.02.2017 13:56 12,6 C 15,6 C 11,7 C 69 % 0 lf 1028,1 hPa 0,0 l/m 2 min 0 min 245 W/m 12,6 km/h (3 Bft) 93,62 %
16.02.2017 13:58 12,6 C 16,7 C 11,7 C 69 % 0 lf 1028,0 hPa 0,0 l/m 2 min 0 min 298 W/m 18,8 km/h (3 Bft) 95,74 %
16.02.2017 14:00 12,6 C 19,4 C 12,2 C 70 % 0 lf 1028,0 hPa 0,0 l/m 2 min 0 min 558 W/m 14,6 km/h (3 Bft) 93,48 %
16.02.2017 14:02 12,7 C 21,1 C 12,8 C 70 % 0 lf 1027,9 hPa 0,0 l/m 2 min 0 min 542 W/m 12,6 km/h (3 Bft) 93,75 %
16.02.2017 14:04 12,7 C 18,9 C 12,8 C 70 % 0 lf 1027,9 hPa 0,0 l/m 2 min 0 min 472 W/m 14,6 km/h (3 Bft) 95,74 %
16.02.2017 14:06 12,8 C 17,2 C 12,8 C 69 % 0 lf 1027,9 hPa 0,0 l/m 2 min 0 min 232 W/m 14,6 km/h (3 Bft) 95,74 %
16.02.2017 14:08 12,7 C 15,0 C 12,2 C 69 % 0 lf 1027,9 hPa 0,0 l/m 0 min 0 min 198 W/m 18,8 km/h (3 Bft) 91,49 %
16.02.2017 14:10 12,7 C 15,0 C 12,2 C 69 % 0 lf 1027,8 hPa 0,0 l/m 0 min 0 min 186 W/m 14,6 km/h (3 Bft) 95,74 %
16.02.2017 14:12 12,7 C 14,4 C 12,2 C 69 % 0 lf 1027,9 hPa 0,0 l/m 0 min 0 min 196 W/m 16,7 km/h (3 Bft) 93,48 %
16.02.2017 14:14 12,7 C 15,6 C 12,2 C 69 % 0 lf 1027,9 hPa 0,0 l/m 2 min 0 min 277 W/m 14,6 km/h (3 Bft) 95,74 %
16.02.2017 14:16 12,7 C 15,6 C 12,2 C 69 % 0 lf 1027,8 hPa 0,0 l/m 2 min 0 min 312 W/m 16,7 km/h (3 Bft) 95,74 %
16.02.2017 14:18 12,7 C 16,1 C 12,2 C 69 % 0 lf 1027,8 hPa 0,0 l/m 2 min 0 min 325 W/m 12,6 km/h (3 Bft) 95,74 %
16.02.2017 14:20 12,7 C 16,7 C 12,2 C 70 % 0 lf 1027,7 hPa 0,0 l/m 2 min 0 min 355 W/m 14,6 km/h (3 Bft) 95,74 %
16.02.2017 14:22 12,7 C 16,7 C 12,2 C 70 % 0 lf 1027,7 hPa 0,0 l/m 2 min 0 min 311 W/m 16,7 km/h (3 Bft) 93,62 %
16.02.2017 14:24 12,7 C 18,3 C 12,8 C 71 % 0 lf 1027,6 hPa 0,0 l/m 2 min 0 min 285 W/m 14,6 km/h (3 Bft) 91,30 %
16.02.2017 14:26 12,7 C 18,9 C 12,8 C 71 % 0 lf 1027,6 hPa 0,0 l/m 2 min 0 min 352 W/m 12,6 km/h (3 Bft) 91,49 %
16.02.2017 14:28 12,8 C 20,0 C 12,8 C 71 % 0 lf 1027,6 hPa 0,0 l/m 2 min 0 min 410 W/m 12,6 km/h (3 Bft) 93,62 %
16.02.2017 14:30 12,8 C 20,0 C 12,8 C 70 % 0 lf 1027,5 hPa 0,0 l/m 2 min 0 min 406 W/m 14,6 km/h (3 Bft) 93,62 %
16.02.2017 14:32 12,9 C 20,6 C 12,2 C 70 % 0 lf 1027,4 hPa 0,0 l/m 2 min 0 min 383 W/m 12,6 km/h (3 Bft) 100,00 %
16.02.2017 14:34 12,9 C 21,1 C 12,2 C 70 % 0 lf 1027,5 hPa 0,0 l/m 2 min 0 min 393 W/m 14,6 km/h (3 Bft) 95,74 %
16.02.2017 14:36 13,0 C 20,6 C 12,2 C 69 % 0 lf 1027,5 hPa 0,0 l/m 2 min 0 min 329 W/m 14,6 km/h (3 Bft) 97,56 %
16.02.2017 14:38 13,0 C 19,4 C 11,7 C 67 % 0 lf 1027,4 hPa 0,0 l/m 2 min 0 min 359 W/m 20,9 km/h (4 Bft) 95,74 %
16.02.2017 14:40 12,9 C 17,2 C 11,7 C 67 % 0 lf 1027,3 hPa 0,0 l/m 2 min 0 min 283 W/m 20,9 km/h (4 Bft) 97,87 %
16.02.2017 14:42 12,9 C 17,8 C 11,7 C 67 % 0 lf 1027,3 hPa 0,0 l/m 2 min 0 min 290 W/m 18,8 km/h (3 Bft) 97,87 %
16.02.2017 14:44 12,9 C 18,9 C 11,7 C 67 % 0 lf 1027,4 hPa 0,0 l/m 2 min 0 min 329 W/m 16,7 km/h (3 Bft) 93,62 %
16.02.2017 14:46 12,9 C 20,0 C 12,2 C 67 % 0 lf 1027,4 hPa 0,0 l/m 2 min 0 min 349 W/m 18,8 km/h (3 Bft) 97,87 %
16.02.2017 14:48 12,9 C 21,1 C 13,3 C 67 % 0 lf 1027,3 hPa 0,0 l/m 2 min 0 min 364 W/m 18,8 km/h (3 Bft) 97,83 %
16.02.2017 14:50 13,0 C 20,6 C 13,3 C 67 % 0 lf 1027,3 hPa 0,0 l/m 2 min 0 min 319 W/m 14,6 km/h (3 Bft) 95,74 %
16.02.2017 14:52 13,0 C 20,0 C 12,8 C 68 % 0 lf 1027,3 hPa 0,0 l/m 2 min 0 min 271 W/m 18,8 km/h (3 Bft) 93,62 %
16.02.2017 14:54 13,0 C 19,4 C 12,2 C 67 % 0 lf 1027,3 hPa 0,0 l/m 2 min 0 min 335 W/m 20,9 km/h (4 Bft) 97,87 %
16.02.2017 14:56 13,1 C 20,6 C 12,8 C 67 % 0 lf 1027,2 hPa 0,0 l/m 2 min 0 min 357 W/m 14,6 km/h (3 Bft) 93,62 %
16.02.2017 14:58 13,1 C 21,1 C 12,8 C 67 % 0 lf 1027,3 hPa 0,0 l/m 2 min 0 min 352 W/m 10,5 km/h (2 Bft) 97,87 %
16.02.2017 15:00 13,2 C 20,6 C 13,3 C 68 % 0 lf 1027,3 hPa 0,0 l/m 2 min 0 min 346 W/m 12,6 km/h (3 Bft) 97,83 %
16.02.2017 15:02 13,2 C 22,2 C 12,8 C 67 % 0 lf 1027,3 hPa 0,0 l/m 2 min 0 min 341 W/m 16,7 km/h (3 Bft) 96,00 %
16.02.2017 15:04 13,3 C 22,2 C 12,2 C 67 % 0 lf 1027,3 hPa 0,0 l/m 2 min 0 min 336 W/m 12,6 km/h (3 Bft) 95,74 %
16.02.2017 15:06 13,3 C 21,7 C 12,2 C 66 % 0 lf 1027,2 hPa 0,0 l/m 2 min 0 min 332 W/m 23,0 km/h (4 Bft) 95,92 %
16.02.2017 15:08 13,3 C 20,6 C 11,7 C 66 % 0 lf 1027,2 hPa 0,0 l/m 2 min 0 min 326 W/m 16,7 km/h (3 Bft) 93,62 %
16.02.2017 15:10 13,4 C 19,4 C 11,7 C 66 % 0 lf 1027,2 hPa 0,0 l/m 2 min 0 min 322 W/m 18,8 km/h (3 Bft) 97,83 %
16.02.2017 15:12 13,4 C 19,4 C 11,7 C 66 % 0 lf 1027,2 hPa 0,0 l/m 2 min 0 min 318 W/m 23,0 km/h (4 Bft) 95,74 %
16.02.2017 15:14 13,4 C 20,0 C 11,7 C 66 % 0 lf 1027,1 hPa 0,0 l/m 2 min 0 min 313 W/m 20,9 km/h (4 Bft) 97,87 %
16.02.2017 15:16 13,4 C 20,6 C 11,1 C 66 % 0 lf 1027,1 hPa 0,0 l/m 2 min 0 min 307 W/m 18,8 km/h (3 Bft) 93,62 %
16.02.2017 15:18 13,4 C 20,6 C 11,1 C 66 % 0 lf 1027,1 hPa 0,0 l/m 2 min 0 min 302 W/m 18,8 km/h (3 Bft) 97,87 %
16.02.2017 15:20 13,5 C 20,0 C 11,1 C 65 % 0 lf 1027,1 hPa 0,0 l/m 2 min 0 min 279 W/m 16,7 km/h (3 Bft) 95,74 %
16.02.2017 15:22 13,5 C 21,1 C 11,1 C 65 % 0 lf 1027,1 hPa 0,0 l/m 2 min 0 min 287 W/m 16,7 km/h (3 Bft) 95,65 %
16.02.2017 15:24 13,5 C 20,0 C 11,1 C 65 % 0 lf 1027,1 hPa 0,0 l/m 2 min 0 min 232 W/m 14,6 km/h (3 Bft) 95,74 %
16.02.2017 15:26 13,5 C 20,6 C 11,1 C 66 % 0 lf 1027,0 hPa 0,0 l/m 2 min 0 min 265 W/m 18,8 km/h (3 Bft) 95,74 %
16.02.2017 15:28 13,5 C 21,1 C 11,1 C 66 % 0 lf 1026,9 hPa 0,0 l/m 2 min 0 min 254 W/m 10,5 km/h (2 Bft) 95,74 %
16.02.2017 15:30 13,6 C 21,7 C 11,1 C 66 % 0 lf 1027,0 hPa 0,0 l/m 2 min 0 min 277 W/m 14,6 km/h (3 Bft) 97,87 %
16.02.2017 15:32 13,6 C 21,1 C 11,1 C 66 % 0 lf 1026,9 hPa 0,0 l/m 2 min 0 min 261 W/m 12,6 km/h (3 Bft) 93,62 %
16.02.2017 15:34 13,6 C 20,0 C 11,1 C 66 % 0 lf 1026,8 hPa 0,0 l/m 2 min 0 min 264 W/m 12,6 km/h (3 Bft) 93,48 %
16.02.2017 15:36 13,7 C 21,1 C 11,1 C 66 % 0 lf 1026,8 hPa 0,0 l/m 2 min 0 min 256 W/m 14,6 km/h (3 Bft) 94,44 %
16.02.2017 15:38 13,7 C 20,0 C 11,1 C 66 % 0 lf 1026,8 hPa 0,0 l/m 2 min 0 min 247 W/m 16,7 km/h (3 Bft) 96,15 %
16.02.2017 15:40 13,7 C 20,0 C 11,1 C 65 % 0 lf 1026,8 hPa 0,0 l/m 2 min 0 min 241 W/m 14,6 km/h (3 Bft) 97,87 %
16.02.2017 15:42 13,7 C 18,9 C 11,1 C 65 % 0 lf 1026,8 hPa 0,0 l/m 2 min 0 min 207 W/m 12,6 km/h (3 Bft) 93,75 %
16.02.2017 15:44 13,7 C 18,3 C 11,1 C 65 % 0 lf 1026,8 hPa 0,0 l/m 2 min 0 min 182 W/m 16,7 km/h (3 Bft) 93,48 %
16.02.2017 15:46 13,7 C 17,8 C 10,6 C 65 % 0 lf 1026,8 hPa 0,0 l/m 2 min 0 min 157 W/m 20,9 km/h (4 Bft) 95,65 %
16.02.2017 15:48 13,6 C 16,7 C 10,6 C 65 % 0 lf 1026,8 hPa 0,0 l/m 2 min 0 min 151 W/m 16,7 km/h (3 Bft) 95,74 %
16.02.2017 15:50 13,5 C 16,7 C 10,6 C 65 % 0 lf 1026,8 hPa 0,0 l/m 2 min 0 min 145 W/m 16,7 km/h (3 Bft) 93,62 %
16.02.2017 15:52 13,5 C 17,2 C 10,6 C 65 % 0 lf 1026,8 hPa 0,0 l/m 2 min 0 min 180 W/m 10,5 km/h (2 Bft) 97,87 %
16.02.2017 15:54 13,4 C 16,7 C 10,6 C 65 % 0 lf 1026,7 hPa 0,0 l/m 2 min 0 min 153 W/m 14,6 km/h (3 Bft) 95,74 %
16.02.2017 15:56 13,3 C 15,6 C 10,6 C 65 % 0 lf 1026,6 hPa 0,0 l/m 0 min 0 min 105 W/m 14,6 km/h (3 Bft) 97,87 %
16.02.2017 15:58 13,2 C 15,6 C 10,0 C 65 % 0 lf 1026,6 hPa 0,0 l/m 0 min 0 min 113 W/m 16,7 km/h (3 Bft) 97,83 %
16.02.2017 16:00 13,2 C 15,6 C 10,0 C 65 % 0 lf 1026,5 hPa 0,0 l/m 0 min 0 min 121 W/m 16,7 km/h (3 Bft) 97,87 %
16.02.2017 16:02 13,1 C 17,2 C 10,0 C 65 % 0 lf 1026,5 hPa 0,0 l/m 2 min 0 min 210 W/m 14,6 km/h (3 Bft) 94,00 %
16.02.2017 16:04 13,1 C 17,8 C 10,6 C 65 % 0 lf 1026,5 hPa 0,0 l/m 2 min 0 min 216 W/m 10,5 km/h (2 Bft) 97,87 %
16.02.2017 16:06 13,0 C 18,9 C 10,6 C 66 % 0 lf 1026,4 hPa 0,0 l/m 2 min 0 min 206 W/m 12,6 km/h (3 Bft) 95,74 %
16.02.2017 16:08 13,0 C 19,4 C 10,6 C 66 % 0 lf 1026,5 hPa 0,0 l/m 2 min 0 min 187 W/m 10,5 km/h (2 Bft) 95,74 %
16.02.2017 16:10 12,9 C 18,9 C 10,6 C 66 % 0 lf 1026,5 hPa 0,0 l/m 2 min 0 min 176 W/m 18,8 km/h (3 Bft) 95,65 %
16.02.2017 16:12 12,9 C 18,9 C 10,0 C 66 % 0 lf 1026,5 hPa 0,0 l/m 2 min 0 min 167 W/m 8,4 km/h (2 Bft) 97,87 %
16.02.2017 16:14 12,8 C 18,9 C 10,0 C 67 % 0 lf 1026,5 hPa 0,0 l/m 2 min 0 min 157 W/m 16,7 km/h (3 Bft) 95,74 %
16.02.2017 16:16 12,8 C 17,8 C 10,0 C 67 % 0 lf 1026,5 hPa 0,0 l/m 2 min 0 min 149 W/m 14,6 km/h (3 Bft) 97,87 %
16.02.2017 16:18 12,7 C 16,1 C 10,0 C 67 % 0 lf 1026,5 hPa 0,0 l/m 2 min 0 min 135 W/m 16,7 km/h (3 Bft) 93,62 %
16.02.2017 16:20 12,7 C 15,0 C 10,0 C 68 % 0 lf 1026,4 hPa 0,0 l/m 2 min 0 min 132 W/m 14,6 km/h (3 Bft) 95,65 %
16.02.2017 16:22 12,7 C 13,9 C 10,0 C 68 % 0 lf 1026,5 hPa 0,0 l/m 2 min 0 min 135 W/m 14,6 km/h (3 Bft) 97,87 %
16.02.2017 16:24 12,6 C 13,3 C 10,0 C 68 % 0 lf 1026,5 hPa 0,0 l/m 2 min 0 min 126 W/m 16,7 km/h (3 Bft) 97,87 %
16.02.2017 16:26 12,6 C 13,3 C 10,0 C 67 % 0 lf 1026,5 hPa 0,0 l/m 2 min 0 min 102 W/m 20,9 km/h (4 Bft) 93,62 %
16.02.2017 16:28 12,5 C 12,8 C 10,0 C 68 % 0 lf 1026,5 hPa 0,0 l/m 2 min 0 min 127 W/m 16,7 km/h (3 Bft) 95,74 %
16.02.2017 16:30 12,4 C 12,8 C 10,0 C 67 % 0 lf 1026,5 hPa 0,0 l/m 2 min 0 min 100 W/m 25,1 km/h (4 Bft) 91,49 %
16.02.2017 16:32 12,4 C 12,8 C 9,4 C 68 % 0 lf 1026,5 hPa 0,0 l/m 0 min 0 min 59 W/m 14,6 km/h (3 Bft) 93,48 %
16.02.2017 16:34 12,3 C 12,2 C 9,4 C 68 % 0 lf 1026,5 hPa 0,0 l/m 0 min 0 min 58 W/m 14,6 km/h (3 Bft) 93,62 %
16.02.2017 16:36 12,3 C 12,2 C 9,4 C 68 % 0 lf 1026,5 hPa 0,0 l/m 0 min 0 min 76 W/m 10,5 km/h (2 Bft) 89,80 %
16.02.2017 16:38 12,2 C 12,2 C 9,4 C 68 % 0 lf 1026,5 hPa 0,0 l/m 2 min 0 min 90 W/m 8,4 km/h (2 Bft) 95,74 %
16.02.2017 16:40 12,2 C 12,2 C 8,9 C 69 % 0 lf 1026,4 hPa 0,0 l/m 2 min 0 min 90 W/m 18,8 km/h (3 Bft) 97,87 %
16.02.2017 16:42 12,1 C 12,2 C 8,9 C 69 % 0 lf 1026,5 hPa 0,0 l/m 0 min 0 min 71 W/m 18,8 km/h (3 Bft) 87,23 %
16.02.2017 16:44 12,1 C 12,2 C 8,9 C 69 % 0 lf 1026,5 hPa 0,0 l/m 2 min 0 min 86 W/m 14,6 km/h (3 Bft) 95,65 %
16.02.2017 16:46 12,1 C 12,2 C 8,9 C 69 % 0 lf 1026,5 hPa 0,0 l/m 2 min 0 min 76 W/m 14,6 km/h (3 Bft) 95,74 %
16.02.2017 16:48 12,0 C 12,2 C 8,9 C 70 % 0 lf 1026,5 hPa 0,0 l/m 2 min 0 min 79 W/m 12,6 km/h (3 Bft) 91,49 %
16.02.2017 16:50 11,9 C 12,2 C 8,9 C 70 % 0 lf 1026,5 hPa 0,0 l/m 2 min 0 min 78 W/m 14,6 km/h (3 Bft) 93,62 %
16.02.2017 16:52 11,9 C 12,2 C 8,9 C 70 % 0 lf 1026,5 hPa 0,0 l/m 2 min 0 min 73 W/m 10,5 km/h (2 Bft) 95,74 %
16.02.2017 16:54 11,9 C 11,7 C 8,9 C 70 % 0 lf 1026,5 hPa 0,0 l/m 2 min 0 min 68 W/m 10,5 km/h (2 Bft) 91,49 %
16.02.2017 16:56 11,8 C 11,7 C 8,9 C 70 % 0 lf 1026,4 hPa 0,0 l/m 2 min 0 min 64 W/m 10,5 km/h (2 Bft) 95,65 %
16.02.2017 16:58 11,8 C 11,7 C 8,9 C 70 % 0 lf 1026,4 hPa 0,0 l/m 2 min 0 min 60 W/m 16,7 km/h (3 Bft) 89,36 %
16.02.2017 17:00 11,7 C 11,7 C 8,9 C 71 % 0 lf 1026,4 hPa 0,0 l/m 0 min 0 min 56 W/m 12,6 km/h (3 Bft) 91,49 %
16.02.2017 17:02 11,7 C 11,7 C 8,9 C 71 % 0 lf 1026,4 hPa 0,0 l/m 0 min 0 min 54 W/m 8,4 km/h (2 Bft) 95,74 %
16.02.2017 17:04 11,7 C 11,7 C 8,9 C 71 % 0 lf 1026,4 hPa 0,0 l/m 2 min 0 min 61 W/m 8,4 km/h (2 Bft) 95,74 %
16.02.2017 17:06 11,6 C 11,7 C 8,9 C 71 % 0 lf 1026,3 hPa 0,0 l/m 2 min 0 min 74 W/m 8,4 km/h (2 Bft) 97,87 %
16.02.2017 17:08 11,6 C 11,7 C 8,9 C 71 % 0 lf 1026,4 hPa 0,0 l/m 2 min 0 min 76 W/m 6,3 km/h (2 Bft) 93,48 %
16.02.2017 17:10 11,6 C 11,7 C 8,9 C 71 % 0 lf 1026,4 hPa 0,0 l/m 2 min 0 min 70 W/m 8,4 km/h (2 Bft) 95,74 %
16.02.2017 17:12 11,6 C 11,7 C 8,9 C 71 % 0 lf 1026,4 hPa 0,0 l/m 2 min 0 min 64 W/m 4,2 km/h (1 Bft) 91,49 %
16.02.2017 17:14 11,6 C 11,7 C 8,9 C 72 % 0 lf 1026,4 hPa 0,0 l/m 2 min 0 min 58 W/m 6,3 km/h (2 Bft) 95,74 %
16.02.2017 17:16 11,6 C 11,7 C 8,9 C 72 % 0 lf 1026,4 hPa 0,0 l/m 2 min 0 min 53 W/m 12,6 km/h (3 Bft) 95,74 %
16.02.2017 17:18 11,6 C 11,7 C 8,3 C 72 % 0 lf 1026,3 hPa 0,0 l/m 2 min 0 min 45 W/m 10,5 km/h (2 Bft) 97,87 %
16.02.2017 17:20 11,5 C 11,1 C 8,3 C 72 % 0 lf 1026,3 hPa 0,0 l/m 2 min 0 min 40 W/m 8,4 km/h (2 Bft) 97,83 %
16.02.2017 17:22 11,5 C 11,1 C 7,8 C 72 % 0 lf 1026,3 hPa 0,0 l/m 2 min 0 min 38 W/m 4,2 km/h (1 Bft) 100,00 %
16.02.2017 17:24 11,5 C 11,1 C 7,8 C 72 % 0 lf 1026,4 hPa 0,0 l/m 2 min 0 min 34 W/m 6,3 km/h (2 Bft) 100,00 %
16.02.2017 17:26 11,4 C 11,1 C 7,8 C 71 % 0 lf 1026,5 hPa 0,0 l/m 2 min 0 min 30 W/m 12,6 km/h (3 Bft) 95,74 %
16.02.2017 17:28 11,4 C 10,6 C 7,8 C 71 % 0 lf 1026,5 hPa 0,0 l/m 2 min 0 min 26 W/m 16,7 km/h (3 Bft) 93,62 %
16.02.2017 17:30 11,3 C 10,6 C 7,8 C 71 % 0 lf 1026,6 hPa 0,0 l/m 2 min 0 min 25 W/m 16,7 km/h (3 Bft) 93,48 %
16.02.2017 17:32 11,3 C 10,6 C 7,8 C 71 % 0 lf 1026,5 hPa 0,0 l/m 2 min 0 min 24 W/m 10,5 km/h (2 Bft) 100,00 %
16.02.2017 17:34 11,2 C 10,6 C 7,8 C 71 % 0 lf 1026,6 hPa 0,0 l/m 2 min 0 min 22 W/m 8,4 km/h (2 Bft) 100,00 %
16.02.2017 17:36 11,2 C 10,6 C 7,2 C 71 % 0 lf 1026,6 hPa 0,0 l/m 2 min 0 min 20 W/m 8,4 km/h (2 Bft) 100,00 %
16.02.2017 17:38 11,2 C 10,0 C 6,7 C 71 % 0 lf 1026,5 hPa 0,0 l/m 0 min 0 min 19 W/m 8,4 km/h (2 Bft) 97,87 %
16.02.2017 17:40 11,1 C 10,0 C 6,7 C 71 % 0 lf 1026,6 hPa 0,0 l/m 0 min 0 min 19 W/m 10,5 km/h (2 Bft) 100,00 %
16.02.2017 17:42 11,1 C 10,0 C 6,7 C 71 % 0 lf 1026,6 hPa 0,0 l/m 0 min 0 min 18 W/m 8,4 km/h (2 Bft) 100,00 %
16.02.2017 17:44 11,1 C 9,4 C 6,1 C 71 % 0 lf 1026,6 hPa 0,0 l/m 0 min 0 min 17 W/m 6,3 km/h (2 Bft) 97,87 %
16.02.2017 17:46 11,0 C 9,4 C 6,1 C 71 % 0 lf 1026,6 hPa 0,0 l/m 0 min 0 min 16 W/m 4,2 km/h (1 Bft) 100,00 %
16.02.2017 17:48 11,0 C 9,4 C 5,6 C 71 % 0 lf 1026,5 hPa 0,0 l/m 0 min 0 min 16 W/m 4,2 km/h (1 Bft) 91,49 %
16.02.2017 17:50 10,9 C 9,4 C 5,6 C 71 % 0 lf 1026,6 hPa 0,0 l/m 0 min 0 min 15 W/m 6,3 km/h (2 Bft) 97,87 %
16.02.2017 17:52 10,9 C 8,9 C 5,0 C 71 % 0 lf 1026,6 hPa 0,0 l/m 0 min 0 min 14 W/m 8,4 km/h (2 Bft) 97,87 %
16.02.2017 17:54 10,8 C 8,9 C 5,0 C 71 % 0 lf 1026,5 hPa 0,0 l/m 0 min 0 min 13 W/m 4,2 km/h (1 Bft) 100,00 %
16.02.2017 17:56 10,8 C 8,9 C 5,0 C 71 % 0 lf 1026,5 hPa 0,0 l/m 0 min 0 min 12 W/m 4,2 km/h (1 Bft) 93,62 %
16.02.2017 17:58 10,7 C 8,9 C 4,4 C 71 % 0 lf 1026,5 hPa 0,0 l/m 0 min 0 min 11 W/m 4,2 km/h (1 Bft) 100,00 %
16.02.2017 18:00 10,7 C 8,3 C 4,4 C 71 % 0 lf 1026,5 hPa 0,0 l/m 0 min 0 min 11 W/m 2,1 km/h (1 Bft) 97,87 %
16.02.2017 18:02 10,6 C 8,3 C 3,9 C 71 % 0 lf 1026,5 hPa 0,0 l/m 0 min 0 min 9 W/m 2,1 km/h (1 Bft) 97,62 %
16.02.2017 18:06 10,4 C 7,8 C 3,9 C 71 % 0 lf 1026,6 hPa 0,0 l/m 0 min 0 min 7 W/m 2,1 km/h (1 Bft) 95,88 %
16.02.2017 18:08 10,3 C 7,8 C 3,9 C 72 % 0 lf 1026,6 hPa 0,0 l/m 0 min 0 min 0 W/m 4,2 km/h (1 Bft) 95,74 %
16.02.2017 18:10 10,2 C 7,8 C 3,9 C 72 % 0 lf 1026,6 hPa 0,0 l/m 0 min 0 min 5 W/m 2,1 km/h (1 Bft) 93,62 %
16.02.2017 18:12 10,2 C 7,8 C 3,9 C 72 % 0 lf 1026,5 hPa 0,0 l/m 0 min 0 min 5 W/m 2,1 km/h (1 Bft) 95,83 %
16.02.2017 18:14 10,1 C 7,8 C 3,9 C 73 % 0 lf 1026,5 hPa 0,0 l/m 0 min 0 min 5 W/m 0,0 km/h (0 Bft) 95,74 %
16.02.2017 18:16 9,9 C 7,8 C 3,3 C 73 % 0 lf 1026,5 hPa 0,0 l/m 0 min 0 min 5 W/m 0,0 km/h (0 Bft) 95,74 %
16.02.2017 18:18 9,9 C 7,2 C 3,3 C 73 % 0 lf 1026,5 hPa 0,0 l/m 0 min 0 min 5 W/m 0,0 km/h (0 Bft) 95,65 %
16.02.2017 18:20 9,8 C 7,2 C 3,3 C 73 % 0 lf 1026,5 hPa 0,0 l/m 0 min 0 min 5 W/m 0,0 km/h (0 Bft) 95,74 %
16.02.2017 18:22 9,7 C 7,2 C 3,3 C 74 % 0 lf 1026,6 hPa 0,0 l/m 0 min 0 min 5 W/m 0,0 km/h (0 Bft) 97,87 %
16.02.2017 18:24 9,6 C 7,2 C 3,3 C 74 % 0 lf 1026,5 hPa 0,0 l/m 0 min 0 min 5 W/m 0,0 km/h (0 Bft) 93,62 %
16.02.2017 18:26 9,5 C 7,2 C 3,3 C 74 % 0 lf 1026,6 hPa 0,0 l/m 0 min 0 min 5 W/m 0,0 km/h (0 Bft) 95,74 %
16.02.2017 18:28 9,4 C 7,2 C 3,3 C 75 % 0 lf 1026,6 hPa 0,0 l/m 0 min 0 min 5 W/m 0,0 km/h (0 Bft) 96,15 %
16.02.2017 18:30 9,3 C 6,7 C 3,3 C 75 % 0 lf 1026,5 hPa 0,0 l/m 0 min 0 min 5 W/m 0,0 km/h (0 Bft) 93,22 %
16.02.2017 18:32 9,2 C 6,7 C 3,3 C 75 % 0 lf 1026,6 hPa 0,0 l/m 0 min 0 min 5 W/m 0,0 km/h (0 Bft) 95,65 %
16.02.2017 18:34 9,2 C 6,7 C 2,8 C 75 % 0 lf 1026,5 hPa 0,0 l/m 0 min 0 min 5 W/m 0,0 km/h (0 Bft) 93,62 %
16.02.2017 18:36 9,1 C 6,7 C 2,8 C 76 % 0 lf 1026,5 hPa 0,0 l/m 0 min 0 min 5 W/m 0,0 km/h (0 Bft) 96,67 %
16.02.2017 18:38 9,0 C 6,7 C 2,8 C 76 % 0 lf 1026,5 hPa 0,0 l/m 0 min 0 min 5 W/m 0,0 km/h (0 Bft) 96,88 %
16.02.2017 18:40 8,9 C 6,7 C 2,8 C 76 % 0 lf 1026,6 hPa 0,0 l/m 0 min 0 min 5 W/m 0,0 km/h (0 Bft) 95,74 %
16.02.2017 18:42 8,8 C 6,7 C 2,8 C 76 % 0 lf 1026,6 hPa 0,0 l/m 0 min 0 min 5 W/m 0,0 km/h (0 Bft) 93,48 %
16.02.2017 18:44 8,8 C 6,7 C 3,3 C 76 % 0 lf 1026,6 hPa 0,0 l/m 0 min 0 min 5 W/m 0,0 km/h (0 Bft) 95,74 %
16.02.2017 18:46 8,7 C 6,7 C 3,3 C 77 % 0 lf 1026,5 hPa 0,0 l/m 0 min 0 min 5 W/m 6,3 km/h (2 Bft) 95,74 %
16.02.2017 18:48 8,7 C 6,7 C 3,3 C 77 % 0 lf 1026,7 hPa 0,0 l/m 0 min 0 min 5 W/m 4,2 km/h (1 Bft) 97,87 %
16.02.2017 18:50 8,6 C 6,7 C 3,3 C 77 % 0 lf 1026,6 hPa 0,0 l/m 0 min 0 min 5 W/m 4,2 km/h (1 Bft) 95,74 %
16.02.2017 18:52 8,5 C 6,7 C 3,3 C 77 % 0 lf 1026,6 hPa 0,0 l/m 0 min 0 min 5 W/m 8,4 km/h (2 Bft) 95,74 %
16.02.2017 18:54 8,4 C 6,7 C 3,3 C 77 % 0 lf 1026,6 hPa 0,0 l/m 0 min 0 min 5 W/m 8,4 km/h (2 Bft) 97,83 %
16.02.2017 18:56 8,4 C 6,7 C 3,3 C 78 % 0 lf 1026,6 hPa 0,0 l/m 0 min 0 min 5 W/m 8,4 km/h (2 Bft) 100,00 %
16.02.2017 18:58 8,3 C 7,2 C 3,9 C 78 % 0 lf 1026,6 hPa 0,0 l/m 0 min 0 min 0 W/m 8,4 km/h (2 Bft) 97,87 %
16.02.2017 19:00 8,3 C 7,2 C 4,4 C 79 % 0 lf 1026,6 hPa 0,0 l/m 0 min 0 min 0 W/m 8,4 km/h (2 Bft) 100,00 %
16.02.2017 19:02 8,3 C 7,2 C 5,0 C 79 % 0 lf 1026,6 hPa 0,0 l/m 0 min 0 min 5 W/m 14,6 km/h (3 Bft) 97,87 %
16.02.2017 19:04 8,3 C 7,8 C 5,6 C 80 % 0 lf 1026,7 hPa 0,0 l/m 0 min 0 min 0 W/m 12,6 km/h (3 Bft) 100,00 %
16.02.2017 19:06 8,3 C 7,8 C 5,6 C 81 % 0 lf 1026,6 hPa 0,0 l/m 0 min 0 min 0 W/m 10,5 km/h (2 Bft) 96,67 %
16.02.2017 19:08 8,3 C 7,8 C 5,6 C 81 % 0 lf 1026,5 hPa 0,0 l/m 0 min 0 min 0 W/m 8,4 km/h (2 Bft) 100,00 %
16.02.2017 19:10 8,3 C 7,8 C 5,6 C 82 % 0 lf 1026,5 hPa 0,0 l/m 0 min 0 min 0 W/m 6,3 km/h (2 Bft) 100,00 %
16.02.2017 19:12 8,3 C 7,8 C 5,6 C 82 % 0 lf 1026,4 hPa 0,0 l/m 0 min 0 min 0 W/m 6,3 km/h (2 Bft) 97,87 %
16.02.2017 19:14 8,2 C 7,8 C 5,0 C 83 % 0 lf 1026,5 hPa 0,0 l/m 0 min 0 min 0 W/m 4,2 km/h (1 Bft) 97,87 %
16.02.2017 19:16 8,2 C 7,2 C 5,0 C 83 % 0 lf 1026,5 hPa 0,0 l/m 0 min 0 min 0 W/m 6,3 km/h (2 Bft) 100,00 %
16.02.2017 19:18 8,2 C 7,2 C 5,6 C 83 % 0 lf 1026,5 hPa 0,0 l/m 0 min 0 min 0 W/m 6,3 km/h (2 Bft) 95,65 %
16.02.2017 19:20 8,2 C 7,2 C 5,6 C 84 % 0 lf 1026,4 hPa 0,0 l/m 0 min 0 min 0 W/m 6,3 km/h (2 Bft) 97,87 %
16.02.2017 19:22 8,2 C 7,2 C 5,0 C 84 % 0 lf 1026,4 hPa 0,0 l/m 0 min 0 min 0 W/m 4,2 km/h (1 Bft) 100,00 %
16.02.2017 19:24 8,2 C 7,2 C 5,0 C 84 % 0 lf 1026,5 hPa 0,0 l/m 0 min 0 min 0 W/m 4,2 km/h (1 Bft) 100,00 %
16.02.2017 19:26 8,2 C 7,2 C 5,0 C 84 % 0 lf 1026,4 hPa 0,0 l/m 0 min 0 min 0 W/m 2,1 km/h (1 Bft) 100,00 %
16.02.2017 19:28 8,1 C 7,2 C 4,4 C 84 % 0 lf 1026,4 hPa 0,0 l/m 0 min 0 min 0 W/m 2,1 km/h (1 Bft) 97,87 %
16.02.2017 19:30 8,1 C 7,2 C 4,4 C 84 % 0 lf 1026,4 hPa 0,0 l/m 0 min 0 min 0 W/m 0,0 km/h (0 Bft) 93,48 %
16.02.2017 19:32 8,1 C 6,7 C 3,9 C 84 % 0 lf 1026,4 hPa 0,0 l/m 0 min 0 min 0 W/m 0,0 km/h (0 Bft) 100,00 %
16.02.2017 19:34 8,1 C 6,7 C 3,9 C 84 % 0 lf 1026,4 hPa 0,0 l/m 0 min 0 min 0 W/m 0,0 km/h (0 Bft) 95,74 %
16.02.2017 19:36 8,0 C 6,7 C 3,9 C 84 % 0 lf 1026,4 hPa 0,0 l/m 0 min 0 min 0 W/m 0,0 km/h (0 Bft) 96,67 %
16.02.2017 19:38 8,0 C 6,7 C 3,3 C 84 % 0 lf 1026,2 hPa 0,0 l/m 0 min 0 min 0 W/m 0,0 km/h (0 Bft) 95,31 %
16.02.2017 19:40 7,9 C 6,7 C 3,3 C 84 % 0 lf 1026,3 hPa 0,0 l/m 0 min 0 min 0 W/m 0,0 km/h (0 Bft) 97,87 %
16.02.2017 19:42 7,9 C 6,7 C 3,3 C 84 % 0 lf 1026,3 hPa 0,0 l/m 0 min 0 min 0 W/m 0,0 km/h (0 Bft) 95,65 %
16.02.2017 19:44 7,9 C 6,7 C 3,3 C 84 % 0 lf 1026,4 hPa 0,0 l/m 0 min 0 min 0 W/m 0,0 km/h (0 Bft) 95,74 %
16.02.2017 19:46 7,9 C 6,7 C 3,3 C 84 % 0 lf 1026,4 hPa 0,0 l/m 0 min 0 min 0 W/m 0,0 km/h (0 Bft) 89,36 %
16.02.2017 19:48 7,8 C 6,7 C 3,3 C 84 % 0 lf 1026,5 hPa 0,0 l/m 0 min 0 min 0 W/m 0,0 km/h (0 Bft) 97,87 %
16.02.2017 19:50 7,8 C 6,7 C 3,3 C 84 % 0 lf 1026,5 hPa 0,0 l/m 0 min 0 min 0 W/m 2,1 km/h (1 Bft) 97,87 %
16.02.2017 19:52 7,7 C 6,7 C 3,3 C 84 % 0 lf 1026,5 hPa 0,0 l/m 0 min 0 min 0 W/m 4,2 km/h (1 Bft) 93,62 %
16.02.2017 19:54 7,7 C 6,7 C 3,3 C 84 % 0 lf 1026,5 hPa 0,0 l/m 0 min 0 min 0 W/m 4,2 km/h (1 Bft) 93,48 %
16.02.2017 19:56 7,7 C 6,7 C 3,3 C 84 % 0 lf 1026,5 hPa 0,0 l/m 0 min 0 min 0 W/m 4,2 km/h (1 Bft) 95,74 %
16.02.2017 19:58 7,6 C 6,1 C 3,3 C 84 % 0 lf 1026,5 hPa 0,0 l/m 0 min 0 min 0 W/m 4,2 km/h (1 Bft) 91,49 %
16.02.2017 20:00 7,6 C 6,1 C 3,3 C 84 % 0 lf 1026,4 hPa 0,0 l/m 0 min 0 min 0 W/m 4,2 km/h (1 Bft) 95,74 %
16.02.2017 20:02 7,6 C 6,1 C 3,3 C 84 % 0 lf 1026,4 hPa 0,0 l/m 0 min 0 min 0 W/m 6,3 km/h (2 Bft) 93,62 %
16.02.2017 20:04 7,5 C 6,1 C 3,3 C 85 % 0 lf 1026,3 hPa 0,0 l/m 0 min 0 min 0 W/m 6,3 km/h (2 Bft) 95,74 %
16.02.2017 20:06 7,4 C 6,1 C 2,8 C 85 % 0 lf 1026,3 hPa 0,0 l/m 0 min 0 min 0 W/m 4,2 km/h (1 Bft) 93,33 %
16.02.2017 20:08 7,4 C 6,1 C 2,8 C 84 % 0 lf 1026,3 hPa 0,0 l/m 0 min 0 min 0 W/m 6,3 km/h (2 Bft) 98,41 %
16.02.2017 20:10 7,4 C 5,6 C 2,8 C 84 % 0 lf 1026,4 hPa 0,0 l/m 0 min 0 min 0 W/m 2,1 km/h (1 Bft) 95,74 %
16.02.2017 20:12 7,3 C 6,1 C 2,8 C 85 % 0 lf 1026,3 hPa 0,0 l/m 0 min 0 min 0 W/m 4,2 km/h (1 Bft) 95,74 %
16.02.2017 20:14 7,3 C 6,1 C 2,8 C 85 % 0 lf 1026,3 hPa 0,0 l/m 0 min 0 min 0 W/m 2,1 km/h (1 Bft) 93,62 %
16.02.2017 20:16 7,3 C 6,1 C 2,8 C 85 % 1 lf 1026,2 hPa 0,0 l/m 0 min 0 min 0 W/m 2,1 km/h (1 Bft) 86,96 %
16.02.2017 20:18 7,2 C 6,1 C 2,8 C 85 % 1 lf 1026,4 hPa 0,0 l/m 0 min 0 min 0 W/m 2,1 km/h (1 Bft) 93,62 %
16.02.2017 20:20 7,2 C 5,6 C 2,2 C 85 % 1 lf 1026,4 hPa 0,0 l/m 0 min 0 min 0 W/m 2,1 km/h (1 Bft) 93,62 %
16.02.2017 20:22 7,2 C 5,6 C 2,2 C 85 % 1 lf 1026,5 hPa 0,0 l/m 0 min 0 min 0 W/m 2,1 km/h (1 Bft) 95,74 %
16.02.2017 20:24 7,1 C 5,6 C 2,2 C 85 % 1 lf 1026,5 hPa 0,0 l/m 0 min 0 min 0 W/m 2,1 km/h (1 Bft) 95,74 %
16.02.2017 20:26 7,0 C 5,6 C 2,2 C 85 % 1 lf 1026,5 hPa 0,0 l/m 0 min 0 min 0 W/m 2,1 km/h (1 Bft) 95,74 %
16.02.2017 20:28 7,0 C 5,0 C 2,2 C 85 % 1 lf 1026,5 hPa 0,0 l/m 0 min 0 min 0 W/m 2,1 km/h (1 Bft) 93,48 %
16.02.2017 20:30 6,9 C 5,0 C 2,2 C 85 % 1 lf 1026,5 hPa 0,0 l/m 0 min 0 min 0 W/m 2,1 km/h (1 Bft) 97,87 %
16.02.2017 20:32 6,9 C 5,0 C 2,2 C 85 % 1 lf 1026,5 hPa 0,0 l/m 0 min 0 min 0 W/m 4,2 km/h (1 Bft) 97,87 %
16.02.2017 20:34 6,8 C 5,0 C 2,2 C 85 % 1 lf 1026,5 hPa 0,0 l/m 0 min 0 min 0 W/m 4,2 km/h (1 Bft) 97,87 %
16.02.2017 20:36 6,8 C 5,0 C 2,2 C 85 % 1 lf 1026,5 hPa 0,0 l/m 0 min 0 min 0 W/m 4,2 km/h (1 Bft) 94,44 %
16.02.2017 20:38 6,7 C 5,0 C 2,2 C 85 % 1 lf 1026,5 hPa 0,0 l/m 0 min 0 min 0 W/m 6,3 km/h (2 Bft) 95,65 %
16.02.2017 20:40 6,7 C 5,0 C 1,7 C 85 % 1 lf 1026,6 hPa 0,0 l/m 0 min 0 min 0 W/m 4,2 km/h (1 Bft) 97,87 %
16.02.2017 20:42 6,7 C 5,0 C 1,7 C 85 % 1 lf 1026,6 hPa 0,0 l/m 0 min 0 min 0 W/m 4,2 km/h (1 Bft) 97,87 %
16.02.2017 20:44 6,6 C 5,0 C 1,7 C 85 % 1 lf 1026,5 hPa 0,0 l/m 0 min 0 min 0 W/m 6,3 km/h (2 Bft) 95,74 %
16.02.2017 20:46 6,6 C 5,0 C 2,2 C 85 % 1 lf 1026,5 hPa 0,0 l/m 0 min 0 min 0 W/m 6,3 km/h (2 Bft) 91,49 %
16.02.2017 20:48 6,6 C 5,0 C 2,2 C 85 % 1 lf 1026,5 hPa 0,0 l/m 0 min 0 min 0 W/m 6,3 km/h (2 Bft) 95,74 %
16.02.2017 20:50 6,5 C 5,0 C 2,2 C 85 % 1 lf 1026,4 hPa 0,0 l/m 0 min 0 min 5 W/m 6,3 km/h (2 Bft) 95,65 %
16.02.2017 20:52 6,5 C 5,0 C 2,2 C 85 % 1 lf 1026,5 hPa 0,0 l/m 0 min 0 min 0 W/m 6,3 km/h (2 Bft) 90,00 %
16.02.2017 20:54 6,4 C 5,0 C 2,2 C 86 % 1 lf 1026,5 hPa 0,0 l/m 0 min 0 min 0 W/m 6,3 km/h (2 Bft) 93,62 %
16.02.2017 20:56 6,4 C 5,0 C 2,2 C 85 % 1 lf 1026,4 hPa 0,0 l/m 0 min 0 min 0 W/m 6,3 km/h (2 Bft) 91,49 %
16.02.2017 20:58 6,4 C 5,0 C 2,2 C 86 % 1 lf 1026,5 hPa 0,0 l/m 0 min 0 min 5 W/m 8,4 km/h (2 Bft) 93,62 %
16.02.2017 21:00 6,4 C 5,0 C 2,2 C 86 % 1 lf 1026,5 hPa 0,0 l/m 0 min 0 min 5 W/m 6,3 km/h (2 Bft) 93,48 %
16.02.2017 21:02 6,4 C 5,0 C 2,8 C 86 % 1 lf 1026,5 hPa 0,0 l/m 0 min 0 min 5 W/m 6,3 km/h (2 Bft) 93,62 %
16.02.2017 21:04 6,3 C 5,0 C 2,8 C 86 % 1 lf 1026,5 hPa 0,0 l/m 0 min 0 min 5 W/m 6,3 km/h (2 Bft) 93,62 %
16.02.2017 21:06 6,3 C 5,0 C 2,8 C 86 % 1 lf 1026,5 hPa 0,0 l/m 0 min 0 min 5 W/m 6,3 km/h (2 Bft) 93,88 %
16.02.2017 21:08 6,3 C 5,6 C 2,8 C 87 % 1 lf 1026,4 hPa 0,0 l/m 0 min 0 min 5 W/m 6,3 km/h (2 Bft) 93,62 %
16.02.2017 21:10 6,3 C 5,6 C 2,8 C 87 % 1 lf 1026,5 hPa 0,0 l/m 0 min 0 min 5 W/m 8,4 km/h (2 Bft) 95,74 %
16.02.2017 21:12 6,3 C 5,6 C 2,8 C 87 % 1 lf 1026,5 hPa 0,0 l/m 0 min 0 min 5 W/m 8,4 km/h (2 Bft) 93,48 %
16.02.2017 21:14 6,2 C 5,6 C 2,8 C 87 % 1 lf 1026,5 hPa 0,0 l/m 0 min 0 min 5 W/m 4,2 km/h (1 Bft) 95,74 %
16.02.2017 21:16 6,2 C 5,6 C 2,8 C 87 % 1 lf 1026,6 hPa 0,0 l/m 0 min 0 min 5 W/m 4,2 km/h (1 Bft) 95,74 %
16.02.2017 21:18 6,2 C 5,6 C 3,3 C 87 % 1 lf 1026,5 hPa 0,0 l/m 0 min 0 min 5 W/m 8,4 km/h (2 Bft) 95,74 %
16.02.2017 21:20 6,2 C 5,6 C 2,8 C 88 % 1 lf 1026,5 hPa 0,0 l/m 0 min 0 min 5 W/m 6,3 km/h (2 Bft) 95,74 %
16.02.2017 21:22 6,2 C 5,6 C 2,8 C 88 % 1 lf 1026,5 hPa 0,0 l/m 0 min 0 min 5 W/m 6,3 km/h (2 Bft) 95,74 %
16.02.2017 21:24 6,2 C 5,6 C 2,8 C 88 % 1 lf 1026,5 hPa 0,0 l/m 0 min 0 min 5 W/m 8,4 km/h (2 Bft) 95,65 %
16.02.2017 21:26 6,2 C 5,6 C 2,8 C 88 % 1 lf 1026,4 hPa 0,0 l/m 0 min 0 min 5 W/m 6,3 km/h (2 Bft) 95,74 %
16.02.2017 21:28 6,2 C 5,6 C 2,8 C 88 % 1 lf 1026,4 hPa 0,0 l/m 0 min 0 min 5 W/m 4,2 km/h (1 Bft) 97,87 %
16.02.2017 21:30 6,1 C 5,6 C 2,8 C 88 % 1 lf 1026,4 hPa 0,0 l/m 0 min 0 min 5 W/m 4,2 km/h (1 Bft) 97,87 %
16.02.2017 21:32 6,1 C 5,6 C 2,8 C 88 % 1 lf 1026,4 hPa 0,0 l/m 0 min 0 min 5 W/m 6,3 km/h (2 Bft) 95,83 %
16.02.2017 21:34 6,1 C 5,6 C 2,8 C 88 % 1 lf 1026,5 hPa 0,0 l/m 0 min 0 min 5 W/m 6,3 km/h (2 Bft) 100,00 %
16.02.2017 21:36 6,1 C 5,6 C 2,8 C 88 % 1 lf 1026,5 hPa 0,0 l/m 0 min 0 min 5 W/m 6,3 km/h (2 Bft) 100,00 %
16.02.2017 21:38 6,1 C 5,6 C 2,8 C 89 % 1 lf 1026,5 hPa 0,0 l/m 0 min 0 min 5 W/m 6,3 km/h (2 Bft) 97,83 %
16.02.2017 21:40 6,1 C 5,6 C 2,8 C 89 % 1 lf 1026,4 hPa 0,0 l/m 0 min 0 min 5 W/m 6,3 km/h (2 Bft) 95,74 %
16.02.2017 21:42 6,1 C 5,6 C 3,3 C 89 % 1 lf 1026,5 hPa 0,0 l/m 0 min 0 min 5 W/m 4,2 km/h (1 Bft) 95,74 %
16.02.2017 21:44 6,1 C 5,6 C 3,3 C 89 % 1 lf 1026,4 hPa 0,0 l/m 0 min 0 min 5 W/m 6,3 km/h (2 Bft) 97,87 %
16.02.2017 21:46 6,1 C 5,6 C 3,3 C 89 % 1 lf 1026,5 hPa 0,0 l/m 0 min 0 min 5 W/m 8,4 km/h (2 Bft) 95,74 %
16.02.2017 21:48 6,1 C 5,6 C 3,3 C 89 % 1 lf 1026,5 hPa 0,0 l/m 0 min 0 min 5 W/m 4,2 km/h (1 Bft) 95,74 %
16.02.2017 21:50 6,1 C 5,6 C 3,3 C 89 % 1 lf 1026,5 hPa 0,0 l/m 0 min 0 min 5 W/m 6,3 km/h (2 Bft) 95,65 %
16.02.2017 21:52 6,1 C 5,6 C 3,3 C 89 % 1 lf 1026,5 hPa 0,0 l/m 0 min 0 min 5 W/m 6,3 km/h (2 Bft) 93,62 %
16.02.2017 21:54 6,1 C 5,6 C 3,3 C 89 % 1 lf 1026,4 hPa 0,0 l/m 0 min 0 min 5 W/m 6,3 km/h (2 Bft) 95,74 %
16.02.2017 21:56 6,1 C 5,6 C 3,3 C 90 % 1 lf 1026,4 hPa 0,0 l/m 0 min 0 min 5 W/m 6,3 km/h (2 Bft) 95,74 %
16.02.2017 21:58 6,1 C 5,6 C 3,3 C 90 % 1 lf 1026,4 hPa 0,0 l/m 0 min 0 min 5 W/m 8,4 km/h (2 Bft) 93,62 %
16.02.2017 22:00 6,1 C 6,1 C 3,9 C 90 % 1 lf 1026,4 hPa 0,0 l/m 0 min 0 min 5 W/m 8,4 km/h (2 Bft) 95,65 %
16.02.2017 22:02 6,1 C 6,1 C 3,3 C 90 % 1 lf 1026,5 hPa 0,0 l/m 0 min 0 min 5 W/m 4,2 km/h (1 Bft) 95,74 %
16.02.2017 22:04 6,1 C 6,1 C 3,3 C 90 % 1 lf 1026,4 hPa 0,0 l/m 0 min 0 min 5 W/m 6,3 km/h (2 Bft) 93,62 %
16.02.2017 22:06 6,1 C 6,1 C 3,9 C 90 % 1 lf 1026,5 hPa 0,0 l/m 0 min 0 min 5 W/m 4,2 km/h (1 Bft) 93,62 %
16.02.2017 22:08 6,1 C 6,1 C 3,3 C 91 % 1 lf 1026,5 hPa 0,0 l/m 0 min 0 min 5 W/m 8,4 km/h (2 Bft) 95,74 %
16.02.2017 22:10 6,1 C 6,1 C 3,9 C 91 % 1 lf 1026,5 hPa 0,0 l/m 0 min 0 min 5 W/m 6,3 km/h (2 Bft) 97,87 %
16.02.2017 22:12 6,1 C 6,1 C 3,9 C 91 % 1 lf 1026,5 hPa 0,0 l/m 0 min 0 min 5 W/m 4,2 km/h (1 Bft) 97,83 %
16.02.2017 22:14 6,1 C 6,1 C 3,9 C 91 % 1 lf 1026,5 hPa 0,0 l/m 0 min 0 min 5 W/m 6,3 km/h (2 Bft) 100,00 %
16.02.2017 22:16 6,1 C 6,1 C 3,3 C 91 % 1 lf 1026,5 hPa 0,0 l/m 0 min 0 min 5 W/m 8,4 km/h (2 Bft) 100,00 %
16.02.2017 22:18 6,1 C 6,1 C 3,3 C 91 % 1 lf 1026,5 hPa 0,0 l/m 0 min 0 min 5 W/m 8,4 km/h (2 Bft) 95,74 %
16.02.2017 22:20 6,1 C 6,1 C 3,3 C 91 % 1 lf 1026,5 hPa 0,0 l/m 0 min 0 min 5 W/m 8,4 km/h (2 Bft) 100,00 %
16.02.2017 22:22 6,1 C 6,1 C 3,9 C 91 % 1 lf 1026,6 hPa 0,0 l/m 0 min 0 min 5 W/m 6,3 km/h (2 Bft) 97,87 %
16.02.2017 22:24 6,1 C 6,1 C 3,9 C 91 % 1 lf 1026,5 hPa 0,0 l/m 0 min 0 min 5 W/m 10,5 km/h (2 Bft) 100,00 %
16.02.2017 22:26 6,1 C 6,1 C 3,9 C 91 % 1 lf 1026,5 hPa 0,0 l/m 0 min 0 min 5 W/m 8,4 km/h (2 Bft) 100,00 %
16.02.2017 22:28 6,2 C 6,1 C 3,9 C 91 % 1 lf 1026,5 hPa 0,0 l/m 0 min 0 min 5 W/m 12,6 km/h (3 Bft) 97,87 %
16.02.2017 22:30 6,2 C 6,7 C 4,4 C 92 % 1 lf 1026,4 hPa 0,0 l/m 0 min 0 min 5 W/m 14,6 km/h (3 Bft) 100,00 %
16.02.2017 22:32 6,3 C 6,7 C 4,4 C 92 % 1 lf 1026,4 hPa 0,0 l/m 0 min 0 min 5 W/m 12,6 km/h (3 Bft) 100,00 %
16.02.2017 22:34 6,3 C 6,7 C 4,4 C 92 % 1 lf 1026,4 hPa 0,0 l/m 0 min 0 min 5 W/m 10,5 km/h (2 Bft) 100,00 %
16.02.2017 22:36 6,3 C 6,7 C 4,4 C 92 % 1 lf 1026,4 hPa 0,0 l/m 0 min 0 min 5 W/m 10,5 km/h (2 Bft) 94,34 %
16.02.2017 22:38 6,4 C 6,7 C 4,4 C 92 % 1 lf 1026,4 hPa 0,0 l/m 0 min 0 min 5 W/m 10,5 km/h (2 Bft) 97,87 %
16.02.2017 22:40 6,4 C 6,7 C 4,4 C 92 % 1 lf 1026,5 hPa 0,0 l/m 0 min 0 min 5 W/m 10,5 km/h (2 Bft) 97,87 %
16.02.2017 22:42 6,4 C 6,7 C 4,4 C 92 % 1 lf 1026,4 hPa 0,0 l/m 0 min 0 min 5 W/m 10,5 km/h (2 Bft) 97,87 %
16.02.2017 22:44 6,4 C 6,7 C 4,4 C 93 % 1 lf 1026,4 hPa 0,0 l/m 0 min 0 min 5 W/m 10,5 km/h (2 Bft) 95,74 %
16.02.2017 22:46 6,4 C 6,7 C 4,4 C 93 % 1 lf 1026,4 hPa 0,0 l/m 0 min 0 min 5 W/m 10,5 km/h (2 Bft) 95,65 %
16.02.2017 22:48 6,4 C 6,7 C 5,0 C 93 % 1 lf 1026,4 hPa 0,0 l/m 0 min 0 min 5 W/m 8,4 km/h (2 Bft) 95,74 %
16.02.2017 22:50 6,4 C 6,7 C 4,4 C 93 % 1 lf 1026,4 hPa 0,0 l/m 0 min 0 min 5 W/m 8,4 km/h (2 Bft) 95,74 %
16.02.2017 22:52 6,4 C 6,7 C 4,4 C 93 % 1 lf 1026,4 hPa 0,0 l/m 0 min 0 min 5 W/m 8,4 km/h (2 Bft) 95,74 %
16.02.2017 22:54 6,4 C 6,7 C 4,4 C 93 % 1 lf 1026,4 hPa 0,0 l/m 0 min 0 min 5 W/m 8,4 km/h (2 Bft) 95,74 %
16.02.2017 22:56 6,5 C 6,7 C 4,4 C 93 % 1 lf 1026,4 hPa 0,0 l/m 0 min 0 min 5 W/m 10,5 km/h (2 Bft) 95,74 %
16.02.2017 22:58 6,5 C 6,7 C 4,4 C 93 % 1 lf 1026,5 hPa 0,0 l/m 0 min 0 min 5 W/m 8,4 km/h (2 Bft) 97,83 %
16.02.2017 23:00 6,5 C 6,7 C 4,4 C 93 % 1 lf 1026,4 hPa 0,0 l/m 0 min 0 min 5 W/m 10,5 km/h (2 Bft) 95,74 %
16.02.2017 23:02 6,5 C 6,7 C 4,4 C 93 % 1 lf 1026,4 hPa 0,0 l/m 0 min 0 min 5 W/m 8,4 km/h (2 Bft) 97,87 %
16.02.2017 23:04 6,5 C 6,7 C 4,4 C 93 % 1 lf 1026,4 hPa 0,0 l/m 0 min 0 min 5 W/m 8,4 km/h (2 Bft) 95,74 %
16.02.2017 23:06 6,5 C 6,7 C 4,4 C 93 % 1 lf 1026,4 hPa 0,0 l/m 0 min 0 min 5 W/m 8,4 km/h (2 Bft) 92,00 %
16.02.2017 23:08 6,6 C 6,7 C 5,0 C 93 % 1 lf 1026,3 hPa 0,0 l/m 0 min 0 min 5 W/m 10,5 km/h (2 Bft) 97,83 %
16.02.2017 23:10 6,6 C 6,7 C 5,0 C 93 % 0 lf 1026,3 hPa 0,0 l/m 0 min 0 min 5 W/m 10,5 km/h (2 Bft) 93,62 %
16.02.2017 23:12 6,6 C 6,7 C 5,0 C 93 % 0 lf 1026,3 hPa 0,0 l/m 0 min 0 min 5 W/m 8,4 km/h (2 Bft) 93,62 %
16.02.2017 23:14 6,6 C 6,7 C 5,0 C 93 % 0 lf 1026,3 hPa 0,0 l/m 0 min 0 min 5 W/m 10,5 km/h (2 Bft) 93,62 %
16.02.2017 23:16 6,6 C 6,7 C 5,0 C 93 % 0 lf 1026,2 hPa 0,0 l/m 0 min 0 min 5 W/m 12,6 km/h (3 Bft) 93,62 %
16.02.2017 23:18 6,6 C 6,7 C 5,0 C 93 % 0 lf 1026,2 hPa 0,0 l/m 0 min 0 min 5 W/m 12,6 km/h (3 Bft) 93,62 %
16.02.2017 23:20 6,6 C 6,7 C 5,0 C 93 % 0 lf 1026,3 hPa 0,0 l/m 0 min 0 min 5 W/m 10,5 km/h (2 Bft) 93,48 %
16.02.2017 23:22 6,6 C 6,7 C 5,0 C 93 % 1 lf 1026,3 hPa 0,0 l/m 0 min 0 min 5 W/m 8,4 km/h (2 Bft) 93,62 %
16.02.2017 23:24 6,6 C 6,7 C 5,0 C 93 % 1 lf 1026,3 hPa 0,0 l/m 0 min 0 min 5 W/m 8,4 km/h (2 Bft) 95,74 %
16.02.2017 23:26 6,6 C 6,7 C 5,0 C 93 % 1 lf 1026,2 hPa 0,0 l/m 0 min 0 min 5 W/m 8,4 km/h (2 Bft) 87,23 %
16.02.2017 23:28 6,6 C 6,7 C 5,0 C 93 % 1 lf 1026,3 hPa 0,0 l/m 0 min 0 min 5 W/m 12,6 km/h (3 Bft) 93,62 %
16.02.2017 23:30 6,6 C 6,7 C 5,0 C 93 % 1 lf 1026,3 hPa 0,0 l/m 0 min 0 min 5 W/m 14,6 km/h (3 Bft) 97,83 %
16.02.2017 23:32 6,6 C 6,7 C 5,0 C 93 % 1 lf 1026,2 hPa 0,0 l/m 0 min 0 min 5 W/m 8,4 km/h (2 Bft) 95,74 %
16.02.2017 23:34 6,6 C 6,7 C 5,0 C 93 % 1 lf 1026,3 hPa 0,0 l/m 0 min 0 min 5 W/m 8,4 km/h (2 Bft) 93,62 %
16.02.2017 23:36 6,6 C 6,7 C 5,0 C 93 % 1 lf 1026,2 hPa 0,0 l/m 0 min 0 min 5 W/m 8,4 km/h (2 Bft) 91,89 %
16.02.2017 23:38 6,6 C 6,7 C 4,4 C 93 % 1 lf 1026,2 hPa 0,0 l/m 0 min 0 min 5 W/m 4,2 km/h (1 Bft) 95,74 %
16.02.2017 23:40 6,6 C 6,7 C 4,4 C 93 % 1 lf 1026,2 hPa 0,0 l/m 0 min 0 min 5 W/m 6,3 km/h (2 Bft) 91,49 %
16.02.2017 23:42 6,6 C 6,7 C 4,4 C 93 % 1 lf 1026,1 hPa 0,0 l/m 0 min 0 min 5 W/m 6,3 km/h (2 Bft) 93,62 %
16.02.2017 23:44 6,6 C 6,7 C 4,4 C 93 % 1 lf 1026,0 hPa 0,0 l/m 0 min 0 min 5 W/m 8,4 km/h (2 Bft) 93,62 %
16.02.2017 23:46 6,6 C 6,7 C 4,4 C 93 % 1 lf 1026,0 hPa 0,0 l/m 0 min 0 min 5 W/m 10,5 km/h (2 Bft) 95,65 %
16.02.2017 23:48 6,6 C 6,7 C 4,4 C 93 % 1 lf 1026,0 hPa 0,0 l/m 0 min 0 min 5 W/m 8,4 km/h (2 Bft) 93,62 %
16.02.2017 23:50 6,6 C 6,7 C 4,4 C 93 % 1 lf 1026,1 hPa 0,0 l/m 0 min 0 min 5 W/m 10,5 km/h (2 Bft) 95,74 %
16.02.2017 23:52 6,6 C 6,7 C 4,4 C 93 % 1 lf 1026,0 hPa 0,0 l/m 0 min 0 min 5 W/m 10,5 km/h (2 Bft) 97,87 %
16.02.2017 23:54 6,6 C 6,7 C 4,4 C 93 % 1 lf 1026,0 hPa 0,0 l/m 0 min 0 min 5 W/m 8,4 km/h (2 Bft) 97,87 %
16.02.2017 23:56 6,6 C 6,7 C 4,4 C 93 % 1 lf 1026,0 hPa 0,0 l/m 0 min 0 min 5 W/m 10,5 km/h (2 Bft) 93,62 %
16.02.2017 23:58 6,6 C 6,7 C 4,4 C 93 % 1 lf 1025,9 hPa 0,0 l/m 0 min 0 min 5 W/m 8,4 km/h (2 Bft) 95,65 %
_ Min-Zeit 08:08 04:46 04:54 15:20 00:00 23:58 - - - - 01:04 20:16
Minimum _ 4,6 C 3,9 C 0,0 C 65 % 0 lf 1025,9 hPa - - - - 0,0 km/h (0 Bft) 86,96 %
_ Max-Zeit 15:36 12:24 11:46 10:32 06:58 02:32 00:00 08:46 00:00 13:42 16:30 01:42
Maximum _ 13,7 C 22,2 C 13,3 C 98 % 15 lf 1030,8 hPa 0,0 l/m 2 min 0 min 568 W/m 25,1 km/h
W-NW (4 Bft)
100,00 %
Durchschnitt _ 8,3 C 9,7 C 5,5 C 84 % 3 lf 1028,5 hPa #0,0 l/m #7:30 h #0 min. 104 W/m 8,6 km/h (2 Bft) 95,78 %
© 2017 W. Hausmann